GFSFLT1_850_rhum_000.txt.gz
RH
91 98 74 66 58 47 41 48 42 41 56 58 87 58 37 38 45 52 68 69 60 57 22 20 20 21 21 20 20 18 16 13 15
98 78 74 55 45 48 44 41 33 26 31 30 37 51 37 35 40 44 53 60 47 44 24 21 20 21 20 20 20 20 18 16 13
98 77 66 46 49 49 58 59 52 37 24 21 19 29 26 29 37 46 46 56 51 80 41 23 22 22 22 22 23 23 22 21 19
70 84 63 47 50 93 99 98 77 62 45 29 17 20 28 26 34 42 40 46 54 45 82 26 22 22 23 24 24 25 24 24 24
31 42 38 37 50 78 84 48 57 54 52 45 30 18 21 26 26 32 41 44 49 44 67 44 24 23 24 25 26 26 26 27 27
27 28 24 29 38 44 43 82 45 50 47 42 41 27 19 20 24 27 32 42 46 46 49 93 67 25 24 25 26 28 28 28 28
25 27 32 38 41 47 49 54 53 50 46 38 36 33 23 22 21 25 27 34 49 51 45 58 92 64 27 26 26 26 28 28 29
26 31 38 38 44 49 55 56 54 52 48 43 38 35 31 19 18 21 26 28 30 37 38 50 91 92 79 44 38 34 28 27 28
28 33 38 41 44 47 52 55 57 57 56 54 51 45 38 33 19 16 22 27 27 25 24 35 82 91 97 96 71 49 34 29 28
36 38 42 47 52 54 57 57 57 58 59 59 58 56 54 48 41 32 20 22 29 33 28 26 46 89 87 93 90 84 53 40 37
42 47 52 56 59 60 62 61 62 61 63 62 64 63 63 61 59 56 50 41 30 32 36 40 32 48 87 90 91 88 77 69 61
63 65 67 70 78 82 82 80 80 80 80 77 77 75 71 68 67 67 66 63 58 48 39 40 42 43 52 78 80 86 90 86 82
76 79 80 84 89 93 94 95 95 94 94 95 92 92 90 83 80 80 78 75 72 70 67 61 57 54 53 68 76 72 76 75 77
87 90 89 94 96 95 97 98 100 98 99 99 98 98 95 94 91 87 85 83 83 79 76 76 75 72 71 68 67 68 69 67 73
93 96 97 96 94 90 91 92 93 96 94 95 90 88 84 80 75 72 71 70 71 74 76 76 74 74 78 80 80 78 73 71 70
86 86 83 83 82 81 83 86 89 86 89 99 81 79 72 70 68 64 63 63 65 67 66 69 72 68 60 65 58 56 64 73 78
69 72 74 75 76 78 79 84 90 98 95 100 100 98 94 90 83 83 80 76 75 77 74 76 74 72 68 70 67 72 66 60 60
55 52 50 50 49 52 58 62 65 93 97 100 99 98 94 99 95 89 78 79 83 75 74 79 81 82 81 82 79 73 72 73 74
46 46 44 43 42 40 39 40 42 49 57 64 79 92 98 100 97 96 93 92 86 79 81 81 83 84 83 83 81 76 76 76 79
33 34 35 37 38 39 38 36 34 32 35 40 47 54 59 74 94 96 89 85 78 75 74 67 66 72 86 85 74 72 76 73 70

GFSFLT1_850_rhum_003.txt.gz
RH
91 92 58 58 58 55 48 46 58 58 60 85 91 99 99 56 47 44 50 59 64 54 96 67 66 39 31 26 23 20 18 15 13
93 94 68 70 50 51 55 52 47 40 38 48 92 99 100 70 46 45 38 44 64 62 92 56 22 22 23 24 22 20 19 17 14
93 97 91 74 54 54 90 98 85 72 54 34 27 71 90 70 34 39 48 51 57 62 89 86 27 22 23 25 23 22 22 21 19
99 98 100 92 76 78 97 97 98 99 96 60 49 35 29 52 38 33 46 51 57 67 62 92 93 73 29 25 24 24 24 23 23
74 97 92 90 87 76 98 100 98 99 95 53 53 54 45 35 25 29 30 44 54 61 69 93 91 91 55 27 25 26 26 26 26
42 43 42 40 42 44 48 84 93 92 75 52 54 52 44 39 28 22 22 28 38 46 50 70 94 95 92 64 35 27 26 27 28
27 27 31 36 40 42 46 49 53 55 54 50 50 46 39 33 28 18 17 20 24 26 31 44 68 91 91 94 58 41 32 28 30
27 30 34 41 46 49 50 52 54 56 56 55 55 53 51 46 38 29 18 14 20 25 25 26 39 61 89 91 94 87 73 50 35
43 45 51 53 54 56 58 59 60 60 61 60 59 59 59 57 54 52 46 36 19 17 24 26 24 26 55 90 85 86 75 55 48
52 56 60 64 70 75 79 80 79 76 74 72 71 69 69 67 65 61 58 59 54 44 25 22 25 26 25 48 69 77 81 80 63
69 71 75 79 90 94 95 94 94 92 91 89 89 87 88 86 80 72 65 63 66 66 61 52 35 30 33 47 57 62 65 80 84
84 85 87 91 94 95 95 93 92 92 93 94 92 94 89 87 85 83 76 69 64 68 71 71 70 61 46 53 58 58 52 71 78
89 87 85 84 87 87 84 86 85 85 86 85 86 92 83 80 83 81 77 74 72 69 68 72 74 77 76 72 81 69 60 53 58
77 82 83 86 84 81 83 83 83 81 82 86 81 78 77 80 80 75 71 67 65 63 65 64 68 74 77 80 80 77 71 67 64
77 81 80 74 73 74 74 75 76 79 82 92 87 84 79 76 70 65 67 68 68 66 65 69 68 67 70 73 76 79 82 82 82
61 63 64 63 62 60 57 55 55 56 67 90 89 93 92 88 84 84 81 82 72 75 77 74 74 70 69 72 73 71 67 71 68
44 42 41 41 40 39 38 38 37 38 39 80 83 90 81 84 94 86 82 81 86 89 85 85 82 81 81 79 78 77 78 78 78
39 35 32 33 33 33 34 34 36 37 34 34 59 86 78 83 65 81 70 88 93 81 83 82 86 79 81 81 76 74 73 79 80
32 33 34 34 33 32 31 31 32 34 39 38 50 42 64 87 80 62 70 68 90 86 81 71 60 59 56 54 54 58 57 67 71
37 36 34 29 24 19 16 15 16 22 35 48 67 72 84 88 96 93 80 84 81 80 71 63 76 79 87 52 54 60 64 65 76

GFSFLT1_850_rhum_006.txt.gz
RH
90 85 78 66 60 58 54 44 45 55 58 56 86 96 92 99 93 82 83 77 95 65 53 94 48 88 87 63 45 26 22 18 16
86 92 90 90 81 55 62 79 70 58 46 35 35 79 97 91 97 88 77 86 90 60 88 92 90 66 85 82 54 38 22 20 17
86 88 93 98 93 75 95 99 92 95 95 85 63 46 79 99 95 90 84 72 43 51 97 93 94 92 66 55 42 35 26 22 20
81 89 95 95 87 92 69 95 89 93 92 98 90 71 60 78 88 86 89 80 39 50 98 97 90 97 92 92 91 59 52 27 24
63 68 76 61 73 55 40 42 52 61 80 53 47 44 39 53 87 84 85 47 26 38 49 74 94 90 96 91 90 63 37 47 27
48 50 42 40 41 42 42 45 49 51 52 50 48 48 52 74 68 62 38 16 17 21 26 36 66 94 89 96 91 82 62 39 37
38 37 38 40 43 47 49 51 52 53 80 89 80 80 86 83 76 61 42 31 18 14 17 20 24 33 71 82 85 91 90 91 54
50 50 52 56 62 60 75 75 83 86 86 89 90 92 91 86 81 68 54 55 49 35 16 15 20 21 23 37 59 83 85 89 71
58 64 74 72 86 95 90 97 96 96 96 95 92 92 92 90 86 74 52 52 58 58 52 38 19 18 23 23 26 45 79 85 76
78 90 92 95 95 97 98 98 98 98 97 94 95 92 94 92 92 86 67 56 54 58 60 60 56 44 25 21 23 23 29 75 80
81 82 87 88 96 92 92 94 90 89 95 94 96 96 96 95 95 94 88 73 65 64 66 63 63 63 61 52 38 33 33 39 66
78 77 77 97 96 88 96 95 97 99 100 99 98 98 97 96 95 96 95 93 76 66 65 69 72 70 67 65 65 58 46 34 34
75 80 92 86 85 91 93 96 96 96 96 95 94 98 95 95 95 96 92 93 89 78 69 65 66 69 73 78 82 80 73 66 58
76 77 76 69 66 74 71 84 85 79 90 93 90 90 86 88 91 92 94 92 84 77 75 74 71 67 68 71 77 90 91 92 84
57 52 47 42 38 38 40 57 58 64 67 70 69 78 72 77 81 80 83 88 96 93 94 80 83 78 77 75 74 74 77 81 89
36 35 34 31 30 31 33 40 48 54 58 58 58 57 57 59 55 82 79 57 69 79 81 94 100 92 87 80 78 81 83 82 84
30 31 33 35 34 34 32 34 39 54 55 58 60 49 51 46 56 48 54 54 56 71 89 91 95 96 96 96 82 76 78 87 81
36 37 36 32 27 22 17 19 24 53 49 56 56 54 55 66 58 58 54 58 62 56 64 73 71 68 74 84 76 61 52 55 60
38 34 29 20 12 6 3 2 8 38 51 52 52 58 60 66 68 55 59 54 65 60 63 65 62 61 62 69 80 75 62 54 77
30 23 15 8 3 2 3 6 8 19 42 46 56 59 60 61 65 69 50 48 48 46 47 56 62 63 61 80 90 90 99 99 99

GFSFLT1_850_rhum_009.txt.gz
RH
86 89 85 87 88 59 52 50 44 41 38 42 42 63 96 90 96 91 79 77 75 96 72 45 79 57 78 88 82 63 36 26 21
88 86 90 97 89 73 58 88 87 88 85 75 56 35 42 59 85 83 88 77 84 94 61 78 79 91 64 68 92 84 90 46 22
99 86 92 93 92 87 74 68 78 84 85 82 69 47 39 34 52 45 83 86 61 38 32 46 95 92 93 68 44 39 27 34 23
88 81 85 80 77 69 43 38 39 44 58 51 35 33 32 31 32 66 78 80 69 23 24 30 90 92 94 96 78 51 39 26 28
56 63 60 46 38 40 41 43 44 46 47 46 47 45 44 41 59 70 66 64 30 18 16 20 27 65 94 88 93 86 51 38 30
78 73 36 35 38 43 46 48 48 48 47 53 72 71 60 69 78 68 64 56 38 25 14 14 17 22 36 74 73 82 81 64 56
48 38 40 45 50 52 56 57 57 58 63 82 81 78 84 84 80 77 69 52 50 49 41 26 12 13 19 23 37 51 86 88 78
78 84 83 74 78 70 92 92 90 91 92 91 88 85 85 85 84 81 78 68 55 54 56 55 48 32 14 15 20 21 28 52 83
85 85 90 94 94 93 96 94 93 92 90 87 86 87 87 87 86 85 84 82 79 73 68 66 62 60 54 37 18 19 21 22 31
91 91 92 93 95 97 96 96 92 90 88 88 87 86 86 85 85 87 87 88 90 90 85 79 81 76 65 61 57 44 24 21 22
96 98 97 97 97 97 97 96 95 95 92 91 92 86 84 84 84 85 87 88 89 89 85 77 74 77 87 94 83 68 63 53 29
99 100 100 98 97 98 98 94 89 86 82 79 79 81 84 85 85 84 84 88 90 90 91 91 79 75 74 89 100 99 97 92 77
97 98 97 91 89 85 82 74 70 69 68 70 72 72 74 74 75 76 78 82 84 83 87 91 93 88 81 78 80 89 91 92 93
84 64 48 56 49 45 37 45 51 49 49 54 53 47 56 60 56 63 72 72 76 84 83 78 78 76 81 87 86 81 78 81 88
36 33 29 30 35 39 38 44 47 46 55 54 50 54 42 46 56 58 60 72 73 72 50 62 78 80 92 93 96 91 92 90 88
29 33 36 36 35 39 36 41 37 34 47 44 48 31 44 36 47 56 48 39 40 49 52 65 75 76 75 80 81 80 78 82 92
37 38 35 32 27 27 21 21 15 28 28 46 43 45 42 38 26 36 50 44 57 58 54 50 55 56 63 69 69 67 82 81 84
36 31 26 23 19 14 8 16 20 35 35 35 42 42 43 49 50 43 47 48 38 47 46 40 42 43 40 38 50 64 72 82 94
32 28 25 20 10 6 6 10 11 22 39 32 35 38 42 50 48 39 42 38 35 30 40 37 37 41 54 61 58 69 83 88 87
33 25 19 10 5 5 6 8 9 12 35 36 37 41 46 47 40 40 38 37 36 38 42 47 48 54 64 63 67 69 66 70 88

GFSFLT1_850_rhum_012.txt.gz
RH
86 90 89 85 71 56 38 32 38 46 41 42 34 32 29 21 29 36 80 81 52 78 94 80 54 38 54 68 85 81 61 25 21
93 84 90 88 55 59 41 34 33 44 49 44 48 27 23 24 20 18 32 53 72 63 90 44 40 50 46 36 31 73 82 54 39
88 87 84 83 44 38 34 34 34 34 41 42 38 29 27 30 22 20 24 48 66 54 29 21 20 28 27 52 48 23 28 39 45
85 79 70 39 32 32 36 38 40 40 40 41 42 42 40 38 35 29 24 27 61 54 23 17 18 20 27 29 72 77 37 28 28
44 46 39 36 34 37 39 41 42 43 44 45 49 60 60 53 45 41 41 43 44 49 30 15 12 14 19 25 50 58 92 72 40
71 67 40 35 40 44 47 49 51 53 54 60 72 76 69 64 64 64 70 68 64 64 55 48 38 19 14 19 26 54 48 78 89
78 48 52 54 56 56 61 61 66 74 68 67 71 74 76 82 82 83 81 78 77 75 68 62 59 58 51 31 19 32 52 53 79
77 77 81 75 70 76 76 82 83 83 84 87 86 87 88 88 87 85 84 84 84 84 86 87 85 80 70 64 60 44 22 38 51
87 88 87 90 90 91 88 96 94 94 92 90 87 86 87 86 86 86 86 88 90 89 91 92 93 90 95 100 94 79 70 55 27
92 91 90 93 97 94 93 86 87 87 83 82 84 81 81 82 83 81 82 85 88 90 90 90 92 91 99 99 99 99 98 92 86
93 95 93 91 89 89 91 88 84 82 79 78 79 80 79 75 74 72 64 67 82 85 81 82 85 89 90 96 91 88 96 99 97
97 96 91 93 86 87 80 72 69 64 58 54 62 65 64 61 62 60 58 68 73 79 81 82 86 81 66 68 70 75 88 90 96
98 94 74 64 55 53 36 37 37 38 37 41 43 42 40 32 34 46 55 62 70 72 77 77 65 71 72 82 87 86 78 82 88
62 38 31 31 34 37 37 35 34 32 28 31 30 26 25 30 48 52 57 65 58 62 69 63 59 55 66 86 94 96 93 86 82
30 32 36 37 36 34 30 27 25 21 26 18 21 17 28 39 36 41 45 42 33 32 38 37 48 52 64 69 69 72 88 79 75
36 37 34 31 27 26 23 19 16 14 12 17 14 20 20 24 35 18 18 18 31 35 43 48 43 39 29 22 27 31 41 54 70
37 34 33 30 28 24 16 12 9 11 12 25 18 32 26 27 17 40 23 47 48 28 20 24 21 28 28 25 21 26 31 71 90
37 34 30 27 22 16 9 9 9 10 11 12 27 39 37 38 34 28 36 29 22 25 17 25 32 37 49 36 22 44 60 76 94
38 34 29 24 15 10 8 8 9 10 11 12 14 18 32 44 45 34 28 31 25 26 38 34 52 42 19 47 62 65 62 70 79
40 37 32 26 16 10 8 9 10 10 12 20 24 23 33 25 39 49 40 42 39 40 44 51 43 36 45 38 40 49 47 52 74

GFSFLT1_850_rhum_018.txt.gz
RH
85 81 76 77 48 37 33 32 31 37 44 45 43 44 38 36 31 28 30 35 51 65 94 90 87 76 69 60 71 85 86 89 94
85 82 83 68 40 37 39 38 39 39 37 39 47 42 44 46 47 47 42 34 41 54 80 94 96 96 97 90 78 94 93 93 100
83 90 79 57 37 38 41 43 45 45 46 47 49 51 56 62 65 61 50 48 42 49 75 95 95 95 89 93 95 98 99 98 95
79 82 58 43 42 41 44 48 53 57 64 64 63 65 67 68 67 67 67 67 66 65 64 88 95 91 74 61 64 81 99 97 97
52 41 44 44 46 53 64 64 69 72 75 80 85 86 85 84 82 82 83 85 84 83 82 83 87 85 83 86 83 76 61 79 97
50 52 50 59 64 65 71 73 77 84 88 88 89 88 85 86 86 87 83 86 85 86 87 89 88 87 88 87 87 87 90 81 86
61 63 74 78 76 80 86 86 86 85 82 82 80 78 79 78 78 80 78 77 84 86 92 87 89 94 93 91 89 84 88 97 100
74 79 85 89 93 93 91 83 85 82 80 78 79 82 76 82 85 85 75 77 82 84 80 82 85 86 85 88 88 89 89 89 90
89 93 95 92 87 92 84 85 81 78 83 81 81 79 76 74 77 80 78 78 78 77 75 75 73 78 88 91 88 88 88 90 74
93 98 97 90 88 86 83 81 78 81 74 62 60 57 48 48 51 50 50 44 47 49 54 71 77 80 90 96 97 92 94 84 82
98 96 91 89 84 85 85 84 68 43 35 34 34 34 34 38 42 40 38 35 41 47 62 66 72 78 78 78 71 66 72 85 75
94 93 91 87 86 86 59 40 34 35 34 31 27 24 23 23 22 23 31 48 57 57 57 58 50 47 53 52 54 56 57 60 66
96 93 91 79 36 34 35 34 31 28 26 23 21 20 19 21 39 44 45 41 33 31 34 35 36 37 36 36 37 39 40 43 48
96 79 33 35 35 33 31 29 26 24 22 21 21 20 19 30 18 18 26 18 11 10 20 31 33 25 17 8 8 12 19 26 28
33 35 35 33 30 28 24 22 20 20 20 22 20 19 21 18 17 11 6 6 4 22 18 15 9 4 3 3 3 4 6 11 30
36 35 34 35 34 30 25 22 20 20 20 20 20 17 16 13 20 6 9 5 9 6 9 9 4 4 4 5 8 8 8 50 48
37 39 43 43 39 31 24 21 19 17 15 15 19 16 14 17 8 12 8 11 7 6 6 6 6 8 9 11 11 9 8 28 69
42 45 46 42 33 28 22 18 16 15 14 14 17 20 27 20 17 10 14 11 10 9 8 8 11 14 16 18 20 16 21 53 61
46 47 46 39 32 25 20 16 14 14 13 12 15 20 26 30 31 21 12 15 13 12 13 16 23 23 28 33 34 37 55 63 78
48 47 45 36 30 23 17 14 13 12 12 16 18 19 20 24 36 48 37 20 13 12 17 21 23 27 40 46 44 54 68 78 80

GFSFLT1_850_rhum_021.txt.gz
RH
86 76 82 72 39 36 35 34 33 34 37 38 39 40 37 40 43 43 39 30 31 58 66 90 87 86 88 88 93 82 78 81 87
84 84 85 68 39 39 41 42 43 43 44 44 45 48 51 62 69 66 59 50 35 36 57 86 94 91 97 97 98 83 92 90 89
84 85 88 54 39 40 42 45 49 52 58 58 59 62 70 71 71 72 73 73 69 65 61 66 92 96 91 67 66 64 85 98 94
78 81 59 42 41 45 54 57 65 70 71 76 80 81 85 85 84 84 85 87 88 86 86 80 77 88 88 86 85 84 78 65 93
64 41 44 50 61 67 70 72 76 80 87 89 90 90 89 88 85 88 90 92 91 89 87 85 87 92 92 88 87 86 89 99 82
50 50 57 70 77 79 89 90 89 87 86 86 85 86 81 85 82 81 83 80 80 81 84 86 92 92 90 91 88 88 85 86 97
61 66 70 80 86 92 93 91 85 86 86 80 79 78 79 80 78 82 83 73 74 82 82 94 93 88 87 87 85 83 84 86 88
74 78 84 88 92 95 96 87 87 84 80 81 79 81 79 78 78 79 81 80 78 77 77 77 73 73 72 74 77 85 91 91 92
86 89 91 93 86 86 88 85 84 77 80 82 80 77 78 69 60 65 65 66 61 59 62 61 58 69 84 93 98 98 93 92 92
94 96 97 91 86 85 83 80 80 85 84 70 54 50 45 40 41 45 49 47 43 40 44 48 64 73 81 89 91 89 90 89 87
98 93 90 87 84 80 82 86 76 43 34 35 35 34 31 28 28 28 28 29 33 40 48 56 58 60 63 70 69 68 67 65 64
90 89 88 88 86 87 73 47 36 36 33 30 27 24 21 20 20 23 33 43 48 48 45 43 44 47 48 44 44 47 50 49 49
90 90 91 91 67 35 35 34 31 29 26 22 22 21 20 20 26 34 29 26 26 25 15 16 26 31 32 31 28 24 19 21 25
92 95 60 34 35 32 29 26 23 21 20 21 22 21 20 19 28 17 20 7 7 5 9 26 27 19 12 6 3 4 7 9 8
81 38 35 33 32 34 32 27 23 22 22 23 21 20 17 20 20 17 12 9 6 10 14 5 5 6 4 4 4 4 6 6 6
36 36 35 40 41 35 28 27 24 22 22 22 21 18 17 15 14 18 8 7 6 10 5 6 5 4 4 4 5 5 6 15 33
37 39 43 43 39 30 28 24 22 19 18 17 19 15 14 15 12 10 10 9 9 7 6 6 5 5 5 6 6 6 8 25 62
40 44 45 45 37 29 27 24 20 17 16 14 20 18 21 18 15 12 12 12 10 8 7 6 6 7 7 8 8 10 13 40 72
45 46 47 44 36 29 27 23 19 16 14 13 16 21 25 27 27 18 14 14 12 9 9 8 8 8 10 17 27 25 47 68 77
47 48 48 44 37 30 26 22 18 14 13 17 20 20 21 23 33 40 25 14 12 12 12 10 9 12 18 29 33 50 69 75 82

GFSFLT1_850_rhum_024.txt.gz
RH
86 80 83 43 36 36 37 38 37 38 38 39 35 40 45 54 63 61 55 46 32 30 43 54 89 88 86 84 74 50 80 85 84
84 83 86 56 42 44 46 48 49 50 52 53 55 56 63 69 71 69 67 64 60 50 41 47 84 92 90 85 96 98 82 67 74
85 82 85 54 45 47 53 57 62 71 71 73 74 76 79 83 84 84 84 85 85 82 79 77 70 85 91 83 73 68 62 68 87
80 83 70 43 49 63 72 76 80 82 86 89 88 90 91 90 89 90 92 93 93 92 86 84 82 78 80 81 83 84 84 82 75
76 58 47 63 70 76 80 82 86 85 85 85 84 83 83 86 86 84 87 87 85 84 85 83 83 84 86 88 85 85 85 82 83
52 54 66 78 80 84 90 89 88 81 85 85 81 81 81 78 77 79 78 81 77 80 83 94 94 96 92 89 90 89 88 86 81
65 68 76 84 88 95 95 92 86 86 87 83 82 82 82 82 80 79 80 82 80 75 77 77 74 75 74 74 79 81 86 89 86
73 78 86 90 91 89 87 86 85 82 78 80 85 84 80 79 74 63 60 65 70 72 71 73 72 70 71 73 82 84 90 94 95
86 89 93 94 87 86 86 80 80 79 83 87 84 70 58 54 50 43 43 45 50 50 48 47 58 61 67 72 76 90 95 94 88
90 96 92 91 86 84 80 80 82 85 74 48 38 37 35 34 32 31 30 32 33 34 38 46 50 50 58 74 84 86 89 85 79
89 89 91 85 83 84 84 85 63 38 36 35 33 30 26 24 22 21 24 29 34 39 42 46 49 52 55 55 56 58 63 64 62
87 87 87 88 87 88 57 36 35 34 31 29 25 22 22 21 21 24 31 39 37 34 33 28 22 24 31 37 42 43 45 43 45
85 87 86 91 75 35 34 32 28 26 23 20 20 21 21 20 22 27 27 20 13 8 10 9 10 19 24 23 20 18 15 13 12
80 88 87 38 35 32 32 32 29 25 23 22 22 21 20 19 20 26 24 18 10 9 6 11 14 6 4 4 4 4 3 4 4
87 85 37 34 37 38 32 25 24 23 23 23 22 20 18 17 20 23 15 15 9 7 8 10 6 5 4 4 4 4 4 4 5
52 36 36 39 40 36 28 23 23 24 24 22 20 17 15 15 19 12 12 17 9 8 8 8 7 6 5 5 5 5 5 6 16
36 37 40 43 43 39 33 26 24 25 24 21 18 14 13 12 12 11 10 11 11 12 10 8 7 6 6 5 5 5 5 9 49
38 41 44 46 45 43 37 28 26 24 21 14 15 17 18 18 16 14 14 15 13 10 9 8 8 8 7 6 7 7 9 20 74
41 45 46 47 47 44 36 29 25 21 15 13 15 19 23 26 26 20 13 13 13 12 11 10 9 9 9 9 10 11 13 55 83
45 47 48 48 48 44 35 27 22 15 13 15 17 19 22 22 32 34 20 12 13 14 13 12 11 10 11 14 16 23 71 79 83

GFSFLT1_850_rhum_030.txt.gz
RH
77 75 55 44 43 42 38 37 39 41 43 46 45 45 54 67 97 90 86 59 51 40 26 35 53 71 88 88 74 70 49 87 95
78 81 64 48 49 50 50 51 55 61 64 64 62 66 68 73 95 89 73 74 69 62 57 52 54 51 54 67 78 83 72 50 63
82 76 72 50 51 57 62 67 71 73 74 76 79 82 82 95 98 98 96 83 78 76 74 71 72 68 62 71 73 76 72 67 64
82 76 78 50 57 68 73 72 75 78 80 82 84 82 78 83 94 84 94 84 84 80 82 80 87 92 88 78 73 78 77 77 75
84 79 70 60 68 74 77 80 85 87 85 82 83 81 79 92 80 86 79 79 79 80 77 71 75 81 85 87 93 92 90 86 85
83 71 52 73 76 82 86 88 86 81 82 80 79 76 79 83 80 83 75 72 71 75 78 78 77 76 76 71 66 71 75 84 92
61 49 65 78 83 90 92 90 84 82 79 77 77 79 77 76 68 63 61 60 55 56 53 62 60 64 66 67 70 68 68 69 76
65 73 82 86 90 95 83 80 79 77 78 78 76 66 57 48 42 37 38 37 40 41 52 49 44 47 49 52 54 52 58 61 64
86 90 97 92 87 82 83 79 78 79 77 66 40 34 34 34 33 32 29 28 30 33 46 40 37 37 40 48 47 48 56 58 65
93 92 88 83 83 81 79 80 82 72 41 34 33 32 30 28 26 25 23 24 24 27 32 31 33 37 42 48 49 51 55 57 62
81 81 80 82 82 78 81 84 58 34 32 28 25 23 21 20 19 21 23 26 30 34 34 29 22 18 20 22 21 20 23 24 27
79 78 77 80 82 81 86 39 32 30 29 26 23 21 20 20 21 22 25 25 23 18 13 10 9 8 8 9 10 8 8 8 8
79 80 77 78 81 83 34 33 32 25 20 18 19 19 20 21 21 23 26 26 23 20 16 12 9 8 8 7 7 6 6 6 5
88 85 80 82 80 34 34 33 29 26 21 18 19 18 19 21 22 25 26 26 22 14 14 16 13 9 9 8 7 7 6 6 6
95 86 84 74 35 34 37 37 36 32 25 20 17 15 16 17 21 23 26 21 12 11 11 11 10 9 8 8 8 8 8 8 8
97 87 84 36 35 39 41 42 41 37 30 22 22 16 14 14 19 25 21 17 12 12 12 10 9 10 10 10 10 9 9 9 8
89 76 44 36 38 43 44 45 44 40 33 22 24 26 24 26 19 16 14 18 14 13 10 11 11 11 10 10 10 9 9 9 8
77 42 36 38 43 45 47 48 46 38 33 22 20 23 25 26 23 17 18 16 20 16 14 12 12 12 11 10 9 8 8 8 9
43 38 38 42 45 47 48 48 46 38 28 22 18 16 18 27 26 29 31 31 31 35 26 17 14 13 14 13 12 10 10 8 26
40 40 41 45 46 48 49 49 44 38 26 20 17 21 28 35 36 32 28 32 34 39 43 44 34 39 40 39 40 43 60 83 91

GFSFLT1_850_rhum_033.txt.gz
RH
66 50 41 41 39 33 30 31 32 32 37 39 40 45 56 72 93 94 96 96 67 61 43 29 35 47 80 87 88 74 76 48 79
79 64 46 44 45 46 46 48 53 57 60 64 66 69 70 72 91 92 96 95 75 72 66 63 64 62 54 50 64 76 83 72 42
78 73 56 47 49 55 62 68 70 72 72 75 77 77 77 76 90 93 94 88 81 79 79 77 82 90 87 71 67 76 79 70 64
78 80 72 48 57 65 70 72 74 79 81 82 80 78 72 73 88 88 89 76 78 83 83 74 69 83 83 86 94 89 81 77 78
80 81 72 51 66 69 73 79 85 83 79 79 78 75 77 85 86 84 78 77 77 76 76 76 76 73 66 62 69 72 82 88 92
84 77 68 65 70 76 81 85 85 80 77 72 72 70 74 73 76 78 64 66 60 52 51 56 59 69 68 70 67 60 55 55 64
93 70 50 71 76 80 88 85 80 76 73 71 68 68 65 65 65 58 44 46 49 46 53 42 43 48 53 58 53 52 52 52 49
58 50 62 79 82 96 81 80 78 78 75 75 65 45 34 42 44 42 35 34 36 44 48 40 42 44 49 55 46 43 48 54 58
79 82 86 94 93 83 81 76 77 78 74 52 34 33 32 34 34 37 32 26 27 32 38 33 31 28 31 36 33 36 43 44 50
79 83 89 84 82 81 77 78 79 77 38 32 29 26 27 28 26 35 22 20 22 25 26 27 30 32 32 31 30 29 31 32 34
86 86 79 79 78 78 77 79 79 35 30 27 25 22 23 22 22 27 23 22 23 26 27 26 17 11 9 7 7 8 8 8 8
75 75 74 73 77 79 79 80 33 29 25 22 20 18 18 23 26 24 34 24 23 22 20 18 16 13 10 7 7 6 6 6 5
72 75 75 74 79 81 81 35 31 28 26 22 23 20 20 23 26 26 30 27 27 23 22 17 12 13 13 10 8 9 8 7 7
73 79 80 80 80 78 36 32 34 34 31 26 20 20 16 26 25 30 29 24 24 20 12 10 11 10 10 9 8 8 8 8 8
73 83 86 81 80 35 33 38 40 40 37 32 23 20 15 21 23 36 28 31 24 19 14 13 15 11 10 10 10 10 10 9 9
81 88 86 83 40 34 38 42 43 43 41 34 28 27 23 19 33 32 32 30 26 23 26 19 13 12 12 11 10 10 9 9 8
90 96 85 80 36 36 42 44 46 46 43 34 29 30 27 30 23 30 23 21 23 28 23 16 15 14 13 12 11 9 8 8 8
94 96 84 43 38 42 44 46 47 46 44 36 25 25 28 25 23 25 30 23 28 25 22 22 19 18 16 15 15 12 10 10 10
99 91 51 39 41 44 46 47 48 47 43 34 27 19 19 30 29 28 29 29 27 30 32 28 21 19 19 24 21 22 16 14 49
96 85 42 40 44 45 46 48 49 48 40 30 22 26 29 33 35 36 31 29 30 32 37 38 40 36 39 38 44 57 69 83 89

GFSFLT1_850_rhum_036.txt.gz
RH
49 36 36 35 28 26 31 34 37 29 38 41 45 51 60 83 91 90 90 82 76 69 64 61 51 51 54 77 81 79 76 75 44
62 47 42 43 44 42 41 42 47 53 57 62 67 71 74 87 86 90 86 90 82 74 73 80 78 84 80 61 59 77 58 64 49
74 59 44 43 47 49 52 57 61 64 70 74 76 75 69 78 85 84 85 89 79 79 82 82 77 86 83 89 87 73 73 80 71
77 72 50 42 51 55 60 64 70 78 80 77 76 75 74 87 83 81 86 82 76 74 74 73 74 78 76 70 74 82 86 89 87
81 76 62 45 58 61 66 74 79 78 74 72 74 69 79 80 83 82 82 70 65 58 54 62 75 70 64 66 67 62 60 65 74
78 74 62 53 62 69 78 83 81 76 71 68 67 69 68 72 72 69 60 48 54 50 45 42 44 46 51 51 52 51 51 53 53
86 82 65 58 66 74 84 82 78 73 72 70 69 55 53 61 50 41 41 38 40 47 40 40 40 41 45 42 40 41 40 40 41
83 65 47 67 74 84 79 81 77 79 76 71 58 35 33 38 40 35 34 36 34 53 36 35 34 36 36 33 26 27 29 29 30
71 66 80 88 90 80 82 77 75 74 68 39 32 31 28 30 30 27 25 26 25 35 31 26 26 25 27 30 29 28 31 31 32
74 82 86 90 84 81 78 77 76 72 42 31 26 25 24 26 26 22 21 21 21 23 24 25 27 27 20 13 10 8 8 8 8
80 81 86 76 77 79 78 75 78 46 29 26 21 18 18 19 22 19 21 20 22 22 24 23 19 16 15 13 10 8 7 6 6
81 84 75 75 73 76 78 79 65 29 28 26 22 20 17 18 21 23 22 22 21 21 21 21 20 17 12 12 11 10 9 8 8
81 73 72 73 77 78 78 77 31 31 33 31 26 22 19 18 22 25 24 22 22 21 21 20 11 10 10 10 10 9 9 9 8
74 69 74 79 78 79 78 36 33 37 38 36 31 25 21 17 22 24 22 22 20 24 20 17 13 12 11 10 10 10 10 10 10
72 74 77 80 79 79 39 33 38 41 41 39 32 27 20 18 16 20 25 24 20 21 19 17 14 13 12 12 11 10 10 10 9
76 75 76 82 80 68 34 38 42 43 44 42 36 25 25 24 21 18 24 24 28 22 18 17 16 15 15 13 12 11 10 10 9
78 82 84 84 80 47 34 42 44 45 46 44 35 27 28 29 28 24 25 25 22 22 21 22 19 19 17 15 14 13 13 12 11
87 91 90 88 80 37 38 44 45 46 47 46 37 25 27 24 21 23 25 25 26 26 26 23 23 23 21 19 18 19 18 20 31
97 97 95 90 67 36 42 45 46 47 48 47 40 26 21 18 19 22 25 24 28 29 25 25 24 24 22 23 25 26 27 35 65
98 100 99 82 45 42 45 46 47 49 49 47 37 26 21 22 28 29 24 24 23 23 23 23 28 30 34 34 38 36 39 62 80

GFSFLT1_850_rhum_039.txt.gz
RH
30 31 29 22 24 26 28 41 59 27 37 41 48 58 78 87 92 89 90 88 80 74 85 66 68 69 58 61 71 64 55 77 62
36 36 36 35 33 32 32 35 42 51 59 64 68 73 87 88 89 82 83 87 80 76 84 86 83 86 84 86 66 68 73 58 60
42 38 38 40 42 44 51 56 60 64 70 73 74 71 71 86 88 86 79 82 76 82 80 77 76 77 78 78 87 95 91 82 85
50 41 38 42 46 52 54 58 67 74 74 70 71 75 91 88 83 81 82 81 74 64 63 74 81 76 74 70 71 72 72 76 87
72 57 40 45 51 54 58 64 70 73 68 65 68 76 80 81 82 82 78 72 60 53 56 59 49 45 47 49 51 54 54 53 61
78 67 47 46 53 61 68 75 74 68 66 66 65 64 67 70 70 66 64 54 51 52 43 44 44 48 43 44 42 42 41 39 42
76 72 49 52 59 61 72 76 74 70 67 68 67 56 52 44 43 44 40 41 43 76 46 44 42 45 43 37 34 34 31 30 30
80 73 67 56 66 67 76 75 75 76 75 75 51 34 32 32 34 33 32 33 40 55 35 35 32 32 30 26 26 27 29 30 31
75 70 50 70 76 76 78 75 72 72 67 38 31 28 25 22 24 24 23 25 29 35 25 24 23 25 28 28 20 13 10 11 11
66 67 80 78 80 82 82 76 72 74 50 30 25 23 22 19 19 19 19 22 22 23 24 25 26 22 16 14 13 11 9 8 7
51 76 84 82 83 82 77 76 76 71 32 27 24 21 19 16 16 17 19 20 21 23 23 22 20 19 18 16 12 11 10 10 9
70 78 85 88 76 76 78 78 78 44 28 29 27 25 21 19 18 18 20 20 21 20 20 20 21 18 10 10 10 10 10 9 9
75 79 80 80 74 76 78 79 72 29 33 34 32 28 24 21 19 19 20 20 20 20 18 19 17 14 12 11 11 11 11 10 10
79 75 81 74 74 75 78 74 37 34 37 38 36 30 26 18 18 21 19 21 21 18 18 17 15 14 13 12 12 13 11 10 10
81 79 78 74 74 76 78 54 32 39 40 41 38 32 23 22 20 20 18 19 18 18 19 17 16 17 17 17 14 13 13 12 12
79 81 75 76 77 77 78 35 36 41 42 43 41 32 28 25 24 21 22 22 23 22 20 20 22 20 19 18 17 15 14 15 18
81 81 75 78 83 79 75 34 39 42 44 44 43 34 32 29 25 24 22 23 25 25 24 27 25 21 18 20 19 19 18 17 24
80 83 78 82 87 81 67 34 40 44 45 45 44 36 28 26 23 22 26 27 26 25 26 27 25 22 22 20 21 20 23 24 60
91 94 83 87 90 80 56 36 41 44 46 47 46 44 35 27 20 21 21 24 25 22 24 22 21 21 21 25 24 26 29 40 74
90 99 91 89 90 86 44 39 43 45 47 48 48 44 34 25 21 21 20 19 20 21 20 20 19 19 24 28 35 38 40 62 69

GFSFLT1_850_rhum_045.txt.gz
RH
16 17 24 48 71 79 78 77 76 46 29 38 57 69 82 86 82 83 82 83 74 80 62 75 84 90 76 62 62 65 66 59 80
21 17 19 27 37 43 60 66 42 44 52 60 68 74 83 84 85 82 79 84 87 86 80 82 90 85 85 92 81 86 86 80 70
26 27 25 24 25 27 32 38 52 60 65 70 73 79 84 82 82 82 79 76 68 65 68 75 92 93 92 93 97 92 96 93 90
30 32 34 36 39 45 52 57 65 73 71 70 71 68 76 84 82 83 86 78 68 62 84 75 78 68 67 66 67 67 65 66 73
32 34 39 44 49 54 59 68 71 70 65 64 72 79 80 78 74 77 78 71 68 68 69 61 54 45 39 37 38 40 42 43 52
40 37 42 50 54 59 66 68 72 67 63 62 64 66 65 65 65 68 70 64 78 53 50 52 55 54 41 38 36 35 34 33 34
51 48 41 51 56 64 68 71 68 65 62 60 60 57 51 48 51 50 48 47 84 56 48 49 47 44 35 29 26 24 24 24 24
70 62 44 53 58 62 67 71 71 71 71 68 61 46 36 33 35 36 35 50 76 50 34 36 33 31 28 27 24 18 14 11 10
69 71 53 47 60 64 69 72 72 71 71 68 42 31 28 25 26 26 25 37 70 42 32 27 25 26 25 18 16 15 14 12 11
67 72 68 57 57 66 70 72 73 71 72 64 34 27 24 21 19 19 20 21 24 26 25 24 23 20 18 18 16 12 10 10 10
65 69 72 52 58 74 79 78 76 73 74 58 29 26 25 22 20 18 18 19 20 22 22 20 19 20 20 16 13 12 11 11 10
62 73 70 58 74 81 82 80 76 74 75 46 29 30 28 25 22 20 19 20 20 21 22 20 18 17 16 16 16 15 13 12 12
54 68 73 71 82 86 83 79 78 76 77 34 33 33 32 28 24 19 19 20 20 20 19 17 17 16 15 15 15 15 15 13 12
56 65 69 71 85 88 86 79 78 77 75 32 36 37 34 30 21 20 20 19 20 20 18 19 17 17 17 18 17 16 15 15 14
80 70 67 72 83 88 89 82 78 78 62 34 40 39 36 28 24 22 20 20 22 22 22 20 19 20 20 19 17 16 15 15 16
82 79 67 76 78 82 88 83 78 78 50 37 42 40 37 31 28 26 24 25 25 24 23 22 20 19 20 20 18 18 15 15 20
64 81 75 72 77 85 90 87 78 78 44 38 42 41 37 35 32 30 28 26 25 25 24 23 22 21 22 20 18 17 16 16 24
66 63 72 75 76 81 85 87 79 78 54 38 42 41 40 36 34 35 28 26 26 27 26 26 23 22 21 20 18 16 16 17 28
62 62 59 77 80 81 87 88 81 81 57 39 43 44 43 40 39 34 29 26 28 29 27 25 22 22 20 18 16 16 16 18 58
64 62 61 70 84 84 93 94 84 83 65 41 44 44 45 45 43 36 32 29 28 26 24 23 22 21 18 16 15 15 16 16 18

GFSFLT1_850_rhum_048.txt.gz
RH
16 23 65 67 62 74 76 74 72 41 26 31 49 62 76 78 78 77 79 77 89 89 76 85 95 86 77 70 79 65 75 63 68
15 17 27 62 72 77 78 77 54 37 45 52 64 73 75 79 81 78 74 78 92 82 83 86 90 88 93 94 95 96 92 87 80
19 18 20 30 36 35 46 41 47 57 60 65 72 78 83 78 77 76 71 79 66 58 59 81 87 88 86 93 89 86 93 95 95
25 26 25 25 27 32 41 55 60 66 70 71 72 69 78 84 81 79 78 75 71 74 74 73 68 61 54 57 63 61 58 64 72
30 32 32 36 42 49 54 60 63 64 64 63 70 78 82 82 75 74 74 70 68 61 63 56 49 38 36 36 36 36 35 35 39
33 36 40 44 49 52 59 63 63 62 59 60 64 65 66 64 64 63 62 75 66 47 50 54 47 33 30 30 29 28 27 26 26
37 36 44 50 56 60 66 68 67 61 59 58 59 58 53 48 48 47 46 69 70 40 37 39 38 30 23 21 20 21 21 21 21
52 47 42 52 58 64 69 72 70 68 66 67 67 56 41 33 34 34 35 62 57 30 24 27 26 23 20 20 18 15 13 12 11
64 62 56 52 57 64 70 76 75 72 72 70 62 37 31 27 25 25 24 32 41 30 24 24 23 23 20 16 16 15 14 12 10
67 71 68 50 61 64 72 77 77 75 72 70 54 31 26 23 21 20 20 23 27 27 28 24 23 20 18 18 16 13 11 10 10
63 71 71 70 62 66 75 79 78 76 72 71 47 28 27 25 22 20 20 20 22 24 24 22 20 20 20 17 15 14 12 12 11
59 66 66 68 63 62 78 82 79 77 73 73 46 29 30 28 25 22 21 20 21 22 22 21 18 16 17 18 16 14 13 13 12
52 61 72 75 68 66 82 83 81 78 76 75 42 32 33 31 27 23 20 20 19 20 21 18 17 15 15 15 15 16 16 15 14
48 53 64 82 78 74 82 85 81 79 77 77 40 35 36 34 30 22 20 20 18 20 19 19 18 17 17 18 17 16 15 15 14
54 49 60 81 82 79 87 89 85 80 78 77 38 37 39 36 30 24 22 20 20 22 21 20 19 19 18 19 18 18 17 15 14
70 68 63 72 72 65 81 89 90 82 79 77 38 38 40 39 33 29 26 24 24 24 23 22 21 20 19 19 19 18 17 16 15
79 73 73 75 71 70 81 85 87 84 79 75 40 41 40 41 36 32 29 30 27 26 26 24 23 22 20 20 19 18 17 15 14
70 71 67 70 75 71 75 82 88 88 82 78 43 43 41 39 37 35 32 34 30 28 28 27 25 24 21 20 20 18 16 14 14
65 69 65 62 70 78 79 80 85 92 86 81 61 40 41 39 39 38 36 34 31 29 30 29 26 24 22 21 19 17 16 15 16
63 63 65 63 63 74 83 85 68 83 94 91 82 48 43 44 43 40 41 38 35 31 32 29 26 24 23 21 19 17 16 16 15

GFSFLT1_850_rhum_051.txt.gz
RH
29 81 88 89 88 90 85 70 61 32 23 30 47 63 69 71 72 78 85 90 92 85 86 98 82 87 74 72 76 70 81 70 58
20 36 68 55 71 72 73 69 55 31 38 51 63 70 73 76 75 74 76 94 90 85 89 94 87 93 94 98 98 95 93 86 79
18 24 39 53 66 70 70 60 39 47 54 62 69 74 76 73 70 65 75 74 73 63 58 66 82 82 78 81 87 85 90 93 100
22 22 27 32 31 32 37 42 51 57 63 65 66 67 70 74 67 64 66 73 78 70 71 59 52 48 40 47 59 66 58 65 79
29 28 27 28 31 38 48 52 60 64 63 61 64 69 75 77 69 68 65 75 65 50 52 43 36 35 32 31 32 32 31 32 37
34 36 38 42 49 54 57 62 64 64 60 60 63 65 66 64 59 59 66 66 57 48 54 48 35 29 24 24 22 21 20 19 20
35 39 43 48 55 62 66 65 66 62 59 58 58 57 54 53 51 50 51 68 52 45 34 39 34 25 22 20 19 18 18 16 15
38 37 44 50 54 57 59 64 66 64 63 64 66 60 47 36 35 37 44 83 46 32 25 25 24 21 20 19 17 15 14 13 12
54 48 43 49 52 59 65 68 68 67 69 70 68 48 32 28 26 27 27 44 35 31 23 22 21 20 18 16 16 15 13 10 10
60 64 61 53 54 60 64 69 70 70 70 69 68 43 29 26 24 23 23 27 32 27 23 22 20 18 17 17 15 13 12 11 10
56 68 73 74 52 60 64 68 74 73 71 69 69 44 28 26 24 22 21 21 23 23 21 20 18 18 18 16 16 14 12 12 11
47 56 67 74 72 65 64 72 78 76 74 72 71 48 29 29 28 25 22 21 21 21 20 20 19 16 16 16 15 14 13 13 12
45 52 59 68 77 73 61 73 79 79 77 74 73 54 31 32 31 27 24 20 20 20 20 20 16 16 15 14 15 15 15 15 14
57 50 56 67 76 80 66 73 83 83 79 76 75 62 33 35 34 31 23 21 20 18 19 18 17 16 16 16 16 16 16 16 15
78 68 57 65 75 83 81 75 88 88 82 78 76 68 35 37 36 34 25 22 21 20 21 20 19 18 18 17 17 18 17 17 16
81 83 70 58 67 74 81 77 89 94 86 78 76 67 37 38 38 36 29 25 24 23 24 23 22 21 21 20 19 19 18 17 17
64 72 74 62 58 70 81 78 82 95 94 79 76 53 44 38 40 38 32 29 28 27 27 27 25 24 24 23 21 20 19 17 16
63 62 65 68 68 66 73 77 75 88 92 85 74 54 45 40 39 39 36 33 31 32 30 29 29 28 26 25 23 21 19 17 16
61 62 63 62 70 78 77 76 72 84 92 88 83 81 73 43 40 39 37 36 33 36 33 32 31 31 28 26 23 22 20 17 16
54 63 65 62 65 63 72 81 79 80 88 93 85 85 83 76 64 41 41 39 37 36 34 33 34 32 29 26 24 22 20 18 16

GFSFLT1_850_rhum_054.txt.gz
RH
77 88 90 95 100 99 89 76 60 25 25 39 55 65 65 70 90 97 86 99 86 86 94 88 87 81 76 83 85 74 84 59 55
38 84 86 88 88 91 82 64 48 28 36 50 62 63 67 93 98 100 100 92 88 91 92 88 92 96 98 92 95 95 87 88 76
20 48 63 70 76 76 70 62 34 44 53 62 68 71 69 91 93 95 99 83 94 82 58 62 82 83 81 79 80 83 91 92 96
17 27 52 55 66 67 62 41 49 56 62 67 69 71 71 91 92 90 94 84 87 86 68 59 50 48 41 40 51 58 66 66 82
22 22 33 41 38 36 39 49 57 65 66 64 65 68 76 94 92 89 94 84 72 79 67 48 39 36 31 31 31 30 30 32 37
31 30 27 29 36 45 58 57 64 63 59 60 64 68 86 91 89 87 65 62 51 45 43 35 33 28 23 22 20 19 17 18 19
72 39 39 48 88 85 91 62 63 61 60 56 56 73 57 78 82 86 59 50 44 41 29 26 22 21 18 17 17 17 15 14 13
39 53 48 77 83 92 83 63 64 59 57 58 63 60 51 66 70 56 48 66 44 31 26 23 22 19 18 17 15 14 14 13 12
71 78 90 94 95 100 98 94 65 63 63 65 67 62 41 36 36 56 38 51 33 27 21 21 20 18 16 15 15 14 12 10 10
82 84 79 92 94 94 94 73 66 66 68 68 68 63 36 28 27 63 30 34 34 30 22 20 20 19 17 16 14 13 12 11 11
88 92 93 86 83 93 91 69 68 71 71 70 68 67 40 28 26 63 66 33 32 29 25 24 20 18 16 14 13 12 12 12 12
71 84 96 97 95 79 70 71 67 73 73 72 70 69 50 28 28 27 74 32 26 24 23 21 19 17 14 14 13 13 14 13 13
52 68 94 96 97 94 69 60 62 72 74 75 72 71 64 30 31 30 28 32 45 21 20 18 18 15 16 15 15 15 14 15 15
67 64 83 80 96 95 81 71 63 73 78 77 74 72 70 33 32 33 30 27 23 28 18 19 17 16 17 16 16 16 16 16 16
76 75 67 82 91 88 87 78 69 72 84 82 78 74 73 45 34 35 33 29 24 22 19 21 19 19 18 18 18 18 19 18 17
72 70 79 76 79 80 88 79 84 72 89 88 80 75 73 63 35 36 35 34 27 24 22 23 23 22 21 21 21 21 21 20 18
57 59 67 76 80 81 80 78 87 83 88 91 68 61 66 72 49 37 38 37 31 28 26 26 26 26 25 25 25 24 23 21 19
58 58 60 61 70 74 63 68 73 92 82 95 77 69 65 57 55 44 39 38 35 31 29 29 30 30 29 28 28 27 25 22 20
49 56 57 66 67 61 66 62 62 85 87 89 92 80 56 51 60 61 60 39 38 35 33 32 33 32 32 32 30 28 26 23 21
41 42 58 56 62 66 62 66 69 71 87 78 84 90 83 72 77 60 51 60 75 44 36 34 36 35 34 34 32 30 27 24 21

GFSFLT1_850_rhum_060.txt.gz
RH
84 86 63 87 89 85 79 77 33 23 34 48 56 67 87 92 82 85 90 87 92 89 86 92 93 94 93 95 87 86 81 52 43
78 82 84 85 87 84 83 68 29 29 43 52 56 68 88 83 79 77 91 96 94 89 86 85 87 88 89 88 84 91 93 94 90
44 67 77 81 88 87 84 55 30 38 47 53 55 72 83 85 83 82 82 86 82 74 52 51 65 84 80 69 66 79 86 89 90
19 44 54 62 70 76 61 46 37 44 50 55 58 73 82 82 83 91 82 76 66 47 34 39 40 38 33 30 32 42 59 76 83
18 26 38 41 48 51 49 37 41 49 52 50 53 68 85 87 76 86 84 75 67 36 27 24 23 23 21 19 20 22 27 30 34
19 22 31 35 40 40 33 34 43 50 50 47 50 64 85 86 84 83 79 56 42 31 26 19 18 17 17 15 14 14 14 15 16
23 21 23 31 29 27 29 37 43 47 47 46 48 67 80 81 82 78 71 39 34 30 20 17 17 16 14 14 13 12 12 11 11
44 36 28 25 26 30 34 42 47 52 50 55 52 71 76 73 73 63 52 32 35 29 20 17 17 16 15 14 13 13 12 11 10
51 33 33 31 32 36 43 52 53 54 73 72 70 67 59 66 66 60 45 29 28 26 22 18 16 16 15 14 14 13 11 11 10
58 44 49 42 44 69 59 83 88 72 60 61 64 67 60 50 49 44 40 38 24 25 22 18 15 15 14 14 13 12 12 11 11
72 65 69 68 84 88 84 90 91 88 68 63 60 64 61 53 46 38 38 40 27 26 25 19 16 15 14 12 13 12 12 12 12
83 76 78 75 75 84 87 87 88 86 76 66 60 62 60 56 49 37 40 36 36 27 26 20 17 16 14 13 14 15 15 15 15
83 84 78 86 86 78 82 88 88 87 77 68 60 60 62 60 56 44 35 35 36 33 28 21 17 16 16 15 16 17 19 20 21
86 82 78 78 89 90 88 84 89 88 83 72 62 61 62 65 63 54 41 36 33 34 33 25 18 16 18 16 19 19 21 23 25
88 86 82 84 81 90 91 90 90 91 87 75 68 62 61 65 66 65 52 40 36 34 34 30 23 18 20 19 20 21 23 25 26
70 72 82 85 87 83 82 85 88 93 92 81 73 62 59 64 68 68 65 45 37 37 35 33 29 23 21 22 22 22 23 25 26
88 77 77 75 87 92 92 82 88 94 94 82 74 63 59 64 72 70 69 63 47 38 37 35 32 28 24 24 24 25 24 26 26
87 90 99 84 92 95 94 96 77 82 95 94 73 68 68 65 66 72 72 68 63 47 39 38 35 32 30 28 28 28 27 27 28
69 80 92 96 99 99 99 100 96 99 96 96 89 73 70 68 63 63 64 67 64 58 44 42 40 38 34 32 30 31 31 30 31
80 74 71 90 99 99 97 97 100 98 100 97 89 85 77 71 65 60 60 61 62 60 52 48 45 43 40 36 33 32 33 33 33

GFSFLT1_850_rhum_066.txt.gz
RH
59 81 91 88 85 77 63 22 27 34 46 68 85 83 87 85 86 89 88 90 87 92 81 94 91 89 86 83 91 82 50 42 71
55 75 79 82 81 72 57 25 32 40 51 65 68 74 79 80 83 89 96 91 88 88 73 70 72 76 84 83 91 91 90 88 86
55 69 74 79 70 64 49 28 34 40 47 59 69 75 76 74 78 84 87 84 80 71 46 40 35 57 73 67 64 82 90 97 91
51 56 69 71 64 62 44 29 34 40 44 54 71 67 73 68 64 61 61 69 57 41 27 25 28 31 33 29 30 43 64 76 84
41 59 69 68 70 59 38 30 35 40 42 47 60 65 64 68 68 60 58 49 38 28 21 16 14 13 15 16 18 24 30 38 50
17 33 52 56 55 52 43 33 37 40 40 42 49 53 53 48 57 64 59 52 33 25 19 14 12 12 12 12 12 13 15 18 21
19 22 30 33 36 41 42 35 42 45 43 42 48 54 51 47 52 58 61 53 42 24 20 15 13 12 11 11 11 12 12 11 12
23 24 25 27 28 27 27 31 40 46 45 44 49 55 57 59 54 54 53 50 39 26 21 17 14 13 13 12 11 11 11 11 10
41 39 34 30 26 25 26 30 38 42 45 45 48 49 54 59 57 52 49 47 40 32 23 20 16 14 13 13 13 12 11 10 10
51 58 54 39 33 28 29 37 46 47 47 50 52 50 53 58 62 61 53 47 38 34 29 22 19 15 13 13 12 12 11 11 11
72 76 74 60 43 43 39 48 50 56 59 61 54 55 55 56 59 59 55 47 42 34 35 27 24 17 14 13 13 13 12 12 12
78 82 83 74 63 55 58 62 67 76 79 75 76 71 58 55 56 57 56 52 49 41 36 34 28 22 16 14 13 14 14 14 14
81 79 80 79 76 69 65 65 69 74 83 86 86 84 72 60 57 57 58 56 55 51 40 39 35 30 21 18 16 14 15 16 17
83 79 74 81 81 78 76 76 77 77 77 85 90 90 85 74 63 56 57 58 58 57 51 42 41 37 28 32 43 18 17 17 19
93 88 82 84 84 81 79 79 83 86 83 83 86 89 88 85 79 69 58 57 59 60 58 52 41 40 37 28 63 62 20 18 20
79 76 74 74 78 75 80 86 86 90 92 91 88 90 91 89 86 82 70 59 58 61 62 58 53 45 44 40 33 66 54 22 20
76 74 75 76 76 84 82 93 93 90 90 97 93 91 86 90 85 85 78 67 60 59 62 61 58 54 51 46 39 36 65 73 37
82 80 66 65 75 81 86 97 99 93 89 86 99 92 89 84 74 68 70 71 66 61 60 65 65 60 57 56 52 45 49 65 83
62 69 72 73 79 86 80 85 90 93 94 91 93 96 98 88 76 72 68 66 66 63 60 61 66 67 65 62 60 61 49 51 54
79 77 83 83 75 73 83 82 80 88 94 93 90 83 100 100 99 93 86 78 77 73 67 68 68 66 63 75 71 71 69 55 64

GFSFLT1_850_rhum_072.txt.gz
RH
77 85 84 82 53 25 21 22 24 28 37 45 58 70 76 80 79 78 79 93 87 82 79 80 80 80 81 82 79 50 44 77 80
78 84 82 74 53 36 27 31 33 37 41 47 53 68 72 81 82 80 83 92 82 72 65 43 57 77 83 80 80 88 92 82 90
88 77 76 70 58 48 28 34 36 40 44 51 58 66 68 76 84 88 87 82 76 64 36 24 24 39 65 79 78 86 91 93 93
74 73 73 67 59 57 32 34 40 43 50 56 62 65 64 63 61 63 63 60 55 44 27 19 15 15 25 37 47 92 90 94 97
50 51 58 61 55 52 39 32 38 43 55 63 64 66 63 63 62 60 58 55 46 35 26 20 15 13 13 14 17 22 75 97 97
40 48 54 54 52 53 41 31 34 38 43 48 56 60 62 62 59 58 62 58 51 44 33 25 18 14 12 11 11 12 15 20 26
23 28 41 45 43 41 40 36 32 38 44 48 53 56 55 59 59 62 67 62 56 48 40 30 23 18 14 12 12 12 12 12 13
20 21 23 30 32 32 34 36 33 35 43 47 47 51 57 58 54 60 64 64 59 52 46 37 29 22 18 14 13 12 12 11 11
30 24 24 25 25 27 30 32 31 32 38 45 47 48 51 62 58 57 59 61 64 58 53 45 37 30 23 17 14 13 13 12 11
51 44 43 44 46 40 38 33 30 32 39 47 48 50 50 53 56 56 59 59 60 64 58 51 45 40 31 23 17 15 14 13 12
61 56 54 64 68 67 56 50 44 39 45 51 54 54 55 56 57 59 59 59 59 60 62 56 53 49 45 34 25 16 15 14 14
76 76 74 72 76 77 76 72 65 59 60 62 65 70 70 73 74 77 78 69 61 59 58 57 55 55 53 48 41 30 16 15 15
82 79 76 77 79 81 81 81 81 77 73 71 72 75 77 78 77 81 82 83 80 71 63 59 57 56 57 56 54 46 30 19 17
82 80 80 84 86 89 90 89 90 87 86 84 82 83 85 87 88 87 88 90 90 86 79 70 62 58 58 60 67 98 88 49 23
87 87 87 89 91 92 93 93 92 94 94 94 92 92 91 91 90 92 94 92 90 89 88 85 82 65 59 59 65 88 100 98 68
89 87 91 89 90 89 87 87 85 86 89 97 90 91 94 96 94 88 84 86 84 84 87 88 83 84 70 64 63 68 84 97 100
91 90 92 89 84 81 79 81 85 85 90 98 92 90 83 77 81 78 79 79 80 81 83 85 83 81 81 72 67 68 75 95 99
71 70 74 85 91 87 84 87 86 78 87 85 92 99 85 80 86 87 90 90 82 82 79 75 78 76 76 73 69 74 87 87 92
46 44 44 45 57 72 79 79 84 82 92 93 90 93 100 99 93 95 97 87 90 87 84 85 82 83 80 76 77 78 93 98 89
42 44 47 53 61 72 84 88 85 85 88 92 89 89 99 99 98 95 96 98 98 91 94 85 84 82 83 88 92 88 93 93 98

GFSFLT1_850_rhum_078.txt.gz
RH
79 74 56 26 22 22 25 29 36 40 48 59 69 75 76 78 98 86 93 96 74 62 38 66 73 81 76 74 64 81 81 84 83
80 79 63 41 25 27 30 35 36 41 48 57 60 73 74 99 97 97 98 80 69 43 28 24 49 70 82 80 82 87 84 87 92
87 81 67 51 32 28 31 34 36 39 42 48 52 56 66 95 96 94 93 48 43 34 25 20 18 21 57 68 84 85 90 92 95
98 83 72 55 50 31 30 33 34 40 42 46 46 45 46 83 56 60 90 49 45 41 31 24 17 14 22 45 57 65 81 92 93
63 66 65 53 50 48 32 31 35 38 41 45 46 46 49 81 51 62 61 52 49 45 38 30 24 18 14 14 20 28 30 35 41
51 54 59 58 54 54 47 35 33 38 40 42 43 45 66 72 69 77 54 56 55 50 47 40 33 25 20 15 12 12 13 15 15
38 40 46 50 49 48 47 45 39 35 41 44 42 52 47 52 59 63 51 55 56 54 56 52 46 36 29 22 17 14 12 12 12
24 24 26 32 40 47 40 42 52 43 37 39 46 45 44 60 55 63 51 53 59 61 57 58 55 50 42 35 26 18 14 13 14
31 31 26 25 29 36 34 55 45 40 35 35 41 43 45 46 53 60 51 53 57 62 73 61 58 56 53 51 41 30 20 15 14
47 52 44 37 36 46 53 47 50 41 39 36 38 45 50 52 54 54 54 57 63 64 64 83 67 60 56 56 56 49 35 21 15
57 68 57 52 59 69 73 72 64 58 56 53 57 59 63 64 67 67 69 72 76 78 74 68 78 85 65 59 58 58 58 43 25
76 80 78 76 72 74 77 77 76 77 76 74 74 75 75 76 75 77 77 80 80 83 85 84 78 79 86 88 89 92 67 65 53
80 81 83 87 85 83 82 82 80 80 82 84 91 83 81 78 82 81 81 83 86 88 87 90 91 86 79 84 95 100 98 94 77
80 82 83 85 85 87 88 88 88 91 96 88 86 86 81 81 84 84 90 88 86 88 88 83 86 90 88 85 91 92 92 85 83
88 86 86 88 87 87 89 91 92 87 91 92 82 77 80 75 78 82 84 86 77 80 88 90 89 88 90 89 87 86 90 92 89
89 88 88 88 88 89 93 91 87 86 87 86 88 96 92 79 85 74 81 85 81 81 84 84 84 84 83 87 84 82 81 84 85
86 86 86 89 87 84 83 84 91 95 96 95 100 97 73 69 78 75 74 76 75 79 80 77 81 83 81 80 80 79 75 77 88
67 69 74 78 80 69 66 76 87 100 98 95 100 95 72 78 86 82 78 77 77 78 79 80 80 85 87 86 85 81 77 74 79
52 59 64 62 57 52 49 50 55 99 100 99 93 89 98 97 90 87 84 86 87 86 76 74 82 85 84 87 91 91 87 81 75
40 42 43 43 42 42 42 44 50 90 96 98 97 94 100 98 98 98 95 82 82 91 81 73 66 60 64 79 84 84 87 86 87

GFSFLT1_850_rhum_081.txt.gz
RH
62 39 22 20 20 24 28 36 39 45 54 62 64 69 74 90 96 98 99 89 50 34 25 75 80 71 79 74 83 81 84 87 84
62 47 31 24 26 28 34 39 39 41 48 50 63 71 87 93 97 94 96 41 33 26 20 18 23 45 68 85 85 86 87 91 90
72 59 44 33 28 32 35 37 39 38 40 44 48 65 81 88 91 92 51 38 35 32 24 20 15 14 39 56 74 85 88 90 92
93 65 50 45 36 29 33 34 36 38 38 39 41 46 56 82 80 81 77 42 38 36 32 26 21 16 14 17 29 38 55 68 75
53 58 51 49 48 43 30 31 35 37 38 38 43 44 52 90 85 88 50 47 44 42 39 35 29 23 19 14 13 14 18 22 24
47 45 53 53 49 49 46 36 30 34 38 39 41 45 84 84 86 86 52 48 48 48 47 45 42 35 28 21 16 14 13 13 15
91 41 43 46 49 47 45 44 39 37 73 60 45 57 76 83 86 87 50 46 47 47 50 50 50 48 42 34 26 19 15 13 12
31 38 26 30 36 43 50 43 53 91 64 70 71 62 47 73 81 84 53 48 47 49 47 50 52 53 52 50 43 31 23 17 14
76 76 80 62 84 84 87 85 87 89 68 70 68 70 53 69 73 76 58 49 51 54 57 53 56 55 54 52 53 52 39 27 17
73 77 74 73 70 69 78 80 79 79 75 74 72 68 73 73 74 73 64 57 60 65 69 67 67 69 64 58 54 54 56 49 33
68 83 78 74 64 76 86 89 88 84 80 76 74 76 80 82 81 78 73 66 70 72 74 77 76 76 83 82 74 67 58 59 58
64 82 94 85 84 81 89 87 84 83 81 77 85 84 84 86 88 88 78 80 73 77 80 82 83 85 84 87 93 91 93 78 67
72 75 80 94 97 90 91 94 94 94 93 91 88 90 86 86 92 92 94 93 88 87 82 85 87 90 91 88 86 94 88 85 84
74 87 90 96 98 98 96 98 98 97 95 95 97 92 92 94 94 93 94 96 96 95 91 88 87 88 88 86 86 92 89 86 88
94 97 97 98 99 98 100 100 100 99 97 99 96 92 88 94 95 93 90 81 78 93 94 85 88 89 88 89 90 91 88 88 92
92 92 100 100 99 100 100 99 96 97 96 100 94 90 91 89 85 87 84 81 82 88 76 82 81 82 84 83 85 88 86 86 86
94 94 97 98 99 98 96 99 99 98 89 98 98 95 83 68 65 81 82 82 79 78 78 80 80 82 83 86 84 83 85 82 86
80 75 75 76 83 88 96 98 100 99 98 98 98 89 76 69 72 80 84 85 83 78 84 79 76 80 89 91 91 88 87 85 80
43 45 48 54 63 64 63 62 61 70 84 82 84 94 97 96 88 81 80 87 82 92 94 85 87 94 70 72 73 79 86 89 89
34 35 38 41 44 45 43 43 43 48 78 84 89 87 93 92 98 99 79 80 82 85 93 88 76 73 79 70 62 66 71 76 83

GFSFLT1_850_rhum_084.txt.gz
RH
31 21 20 20 23 26 30 35 43 51 59 63 66 83 96 94 88 86 52 34 26 20 18 28 41 59 76 85 81 82 88 88 87
42 27 24 23 25 28 30 34 39 45 49 60 68 80 94 89 92 87 43 31 31 24 20 16 14 21 53 74 84 84 83 89 86
56 39 27 26 26 28 30 32 34 36 37 49 61 69 89 89 81 62 45 37 34 32 27 22 18 14 22 31 44 54 64 68 69
63 43 34 28 25 27 30 31 34 35 36 37 41 45 69 70 64 71 50 42 39 38 34 30 25 20 17 14 14 16 21 26 22
40 40 36 35 33 28 27 30 33 33 36 36 38 42 65 73 78 73 58 46 45 44 42 41 36 31 25 20 16 14 12 13 13
37 36 38 38 38 39 38 33 29 31 34 37 38 42 62 84 86 79 64 46 45 46 46 46 46 44 38 31 25 20 16 14 12
34 41 36 38 39 39 38 37 37 35 38 41 47 54 65 74 83 78 62 51 45 45 48 48 47 48 48 46 41 31 24 18 14
46 31 27 26 29 34 41 43 48 47 44 63 44 63 48 46 76 73 63 57 48 47 47 49 50 50 48 48 50 50 41 29 21
44 40 41 31 33 42 55 47 72 72 50 52 49 54 50 46 63 66 59 58 52 53 58 60 57 57 58 55 52 50 52 51 37
64 66 66 55 52 55 52 59 60 69 69 71 64 58 60 67 71 70 65 64 62 63 66 68 70 69 69 74 73 66 57 53 54
70 67 62 63 50 50 62 73 83 76 76 74 71 70 72 73 76 74 71 71 68 70 73 75 77 80 89 87 84 82 76 74 69
54 59 80 70 68 66 73 74 78 76 73 72 74 79 79 78 77 79 87 80 75 77 76 82 87 90 90 89 92 87 82 84 78
66 70 75 82 87 80 77 78 82 82 82 85 86 90 90 81 78 85 90 94 94 92 91 86 88 93 92 92 89 90 84 82 83
76 77 79 83 88 89 88 87 92 96 96 91 91 96 90 84 86 88 94 94 95 92 85 88 83 87 95 94 88 89 89 92 94
92 88 93 98 99 99 97 98 97 93 94 96 91 93 92 88 84 85 76 81 81 73 82 85 82 87 86 82 82 84 88 90 93
98 95 99 98 97 99 99 97 98 96 97 99 94 89 87 85 86 80 86 82 76 78 80 75 82 86 86 88 87 85 87 85 87
100 100 100 97 98 98 98 99 96 98 98 97 97 85 77 72 70 70 88 82 84 81 79 81 86 85 86 87 84 86 89 86 80
89 91 99 97 99 98 99 100 98 98 93 97 93 94 82 76 73 77 80 83 84 81 87 92 91 91 81 66 72 81 81 80 84
65 62 53 49 51 51 54 62 68 94 95 80 86 94 97 86 87 78 79 79 83 78 94 85 87 87 86 72 74 68 57 64 68
33 34 34 35 36 39 40 42 43 44 50 79 90 88 89 88 86 85 76 72 75 81 87 80 84 86 87 79 78 73 62 60 65

GFSFLT1_850_rhum_087.txt.gz
RH
17 18 20 23 28 29 35 41 49 57 60 68 83 84 89 78 75 42 31 27 23 19 17 16 25 53 78 84 83 83 86 81 77
20 20 22 25 27 27 30 34 40 48 56 59 72 92 87 79 60 45 36 32 30 26 22 18 15 22 36 61 75 80 61 61 59
24 23 24 25 26 27 27 28 32 35 51 56 67 85 77 78 56 52 43 40 37 34 30 26 21 18 18 21 28 31 31 28 24
32 28 24 25 26 27 27 28 29 31 35 40 48 61 57 58 51 55 49 45 43 41 40 37 32 26 22 18 15 14 14 14 13
36 35 32 30 26 25 27 28 30 32 34 37 40 43 60 62 62 60 60 48 44 44 45 45 44 40 35 28 23 20 16 14 13
43 38 36 34 33 32 31 29 27 29 33 36 38 48 60 65 70 72 65 58 46 44 46 46 46 46 46 44 39 30 24 19 15
43 38 38 36 34 33 30 30 32 31 34 38 42 52 52 55 67 70 65 59 50 45 47 49 49 49 47 46 48 48 40 30 22
40 31 28 28 26 28 32 34 42 46 41 34 36 42 43 47 59 64 63 58 56 51 52 57 59 57 56 52 49 49 50 49 37
40 31 32 35 30 33 37 38 41 46 48 51 51 48 44 50 53 55 59 60 61 60 62 65 68 68 68 68 69 66 59 53 53
47 44 44 43 42 41 41 43 52 55 62 62 60 59 61 60 61 62 65 65 66 69 70 73 77 80 81 82 82 80 79 76 70
62 58 58 55 54 48 50 59 70 74 72 71 70 68 67 65 68 73 74 75 76 76 78 81 85 87 88 88 89 85 84 80 81
64 63 61 71 65 65 65 72 78 78 76 72 78 79 84 82 82 84 85 84 88 90 91 92 84 77 85 88 89 92 93 89 83
61 59 69 76 80 82 82 81 80 81 84 89 87 87 88 89 89 87 91 96 94 91 90 92 83 83 82 84 89 90 94 97 96
68 69 75 81 86 90 89 89 92 96 94 89 88 86 89 90 91 90 91 92 80 79 82 92 77 88 83 84 80 82 87 94 99
77 83 85 92 98 97 96 95 94 93 91 90 92 94 91 90 87 78 83 87 85 78 72 83 81 82 81 83 82 77 73 80 88
84 84 95 96 92 92 89 89 84 84 87 94 92 92 87 78 65 66 80 84 82 78 80 74 80 78 83 84 84 80 79 78 82
91 92 96 98 98 97 96 95 93 96 97 94 90 87 76 74 69 68 69 80 86 81 81 77 76 83 84 80 69 61 70 80 82
97 98 97 98 97 97 98 97 97 98 94 97 93 93 87 81 79 77 87 79 77 78 78 75 79 83 85 88 87 70 63 58 51
80 86 85 83 65 52 47 51 53 78 71 83 84 99 99 98 91 76 81 86 87 82 80 81 72 79 80 86 87 84 66 66 54
44 39 36 35 34 34 35 37 40 44 45 46 69 86 96 87 99 97 74 75 92 90 92 91 72 73 77 89 95 81 68 66 60

GFSFLT1_850_rhum_090.txt.gz
RH
17 19 22 26 28 36 42 49 48 49 54 62 82 82 67 59 50 34 32 28 24 21 18 17 34 75 84 81 82 86 60 63 59
19 21 24 25 28 32 35 43 46 46 53 54 70 58 65 49 56 39 39 35 32 29 25 20 18 27 36 48 48 45 36 30 24
21 22 24 25 26 28 29 33 40 44 48 51 56 55 62 50 57 49 45 43 40 38 36 32 26 22 19 19 19 20 18 16 15
24 25 25 26 27 27 28 28 30 35 40 42 49 55 56 51 54 61 56 46 44 44 43 43 41 36 30 24 20 18 17 15 14
26 25 25 27 28 28 29 30 32 32 34 37 41 48 61 60 63 66 62 58 47 45 45 44 44 45 44 41 36 29 24 20 16
33 32 32 34 34 32 30 29 29 31 34 36 38 46 58 57 61 63 63 61 54 47 47 48 48 47 46 46 47 47 40 31 24
38 39 37 36 37 35 35 36 34 32 35 38 40 45 50 47 50 56 60 61 60 55 53 55 58 56 54 52 49 48 48 48 40
39 35 33 34 32 33 34 36 39 43 43 40 41 40 43 42 44 52 57 62 66 66 61 62 66 67 67 67 68 65 60 54 52
39 32 34 35 36 38 42 42 45 52 56 55 55 55 52 51 56 58 61 66 69 70 71 71 72 74 77 78 80 79 80 74 67
43 40 43 47 45 44 45 48 57 61 64 64 64 62 62 63 64 66 71 75 78 81 80 80 81 82 84 85 84 88 88 85 80
50 43 44 45 50 50 50 57 66 70 72 71 72 71 70 72 73 76 80 82 85 89 92 90 85 74 70 76 87 91 88 92 83
57 50 44 50 63 62 62 66 73 76 80 79 78 82 83 83 86 89 92 90 91 93 90 84 81 76 79 77 81 86 99 97 93
59 59 51 67 73 77 79 81 81 82 85 87 86 84 88 88 90 96 95 94 84 88 83 82 86 80 81 74 78 80 87 93 99
59 61 66 75 79 84 90 94 95 92 88 88 88 88 89 89 92 91 93 90 82 79 84 80 84 78 84 78 77 78 79 82 89
72 72 76 82 95 95 94 91 93 88 83 82 83 85 85 87 85 73 72 89 93 86 72 71 73 74 77 83 80 80 81 80 83
80 82 84 88 92 92 92 88 88 85 82 88 79 82 76 79 71 64 61 75 81 84 79 78 74 75 74 82 84 74 54 58 74
84 85 91 91 94 94 95 95 91 91 93 88 88 84 82 73 74 73 67 66 80 85 85 84 70 69 79 82 83 85 77 62 54
85 87 90 94 97 96 96 99 100 96 93 97 94 89 80 81 82 83 84 83 88 87 82 83 78 73 73 78 81 86 85 82 60
64 71 77 82 89 73 86 83 78 76 73 62 83 85 97 86 81 84 89 92 92 92 92 89 85 86 74 71 76 81 78 74 62
53 76 70 69 67 52 40 39 39 41 42 45 49 58 98 94 96 88 90 96 89 90 95 94 96 96 90 74 75 81 78 68 63

GFSFLT1_850_rhum_093.txt.gz
RH
18 20 24 31 35 39 39 40 42 43 49 50 57 55 47 42 36 35 34 31 28 24 20 19 43 94 82 76 79 67 36 28 22
21 24 26 32 36 39 41 41 41 46 58 66 54 52 50 47 45 41 42 40 38 35 31 26 23 23 23 26 28 24 20 18 15
22 24 26 30 32 38 40 45 46 50 49 53 54 54 50 46 50 50 46 44 44 43 41 40 37 33 28 23 21 20 18 17 15
23 25 25 26 27 29 32 38 46 50 52 48 48 50 50 52 55 55 56 51 46 45 44 43 43 44 42 39 35 31 26 22 19
25 26 27 27 28 30 32 33 37 44 49 50 45 45 51 55 55 59 59 58 57 48 46 48 48 47 46 45 46 45 42 34 27
27 27 27 28 29 30 32 34 37 38 40 43 42 43 53 52 54 57 60 58 62 57 52 54 58 57 55 52 49 48 48 47 43
38 38 37 38 39 40 38 37 34 35 42 45 45 49 52 47 47 51 59 59 64 64 61 61 65 65 65 66 66 64 62 57 52
42 41 40 40 39 39 39 38 41 44 50 47 46 44 47 47 49 52 58 64 68 68 68 70 70 72 72 72 74 75 77 74 66
43 36 32 30 30 34 41 45 47 55 58 58 59 59 60 59 58 62 64 70 76 79 83 78 79 77 77 75 80 83 84 83 78
46 39 42 44 40 43 47 46 54 60 65 67 68 66 64 65 66 68 75 81 85 88 93 92 86 78 64 74 80 80 86 91 86
52 47 49 50 51 53 51 53 62 70 73 74 73 72 73 77 82 83 86 91 93 92 95 89 84 79 76 82 77 89 90 90 94
61 57 52 54 59 62 61 62 70 74 76 77 78 82 87 87 89 90 91 96 95 89 85 86 73 84 84 77 76 76 81 86 94
72 65 59 60 70 72 74 76 80 83 85 86 87 86 87 87 88 90 91 92 86 81 77 74 82 84 67 76 79 79 77 78 80
85 70 66 63 78 82 86 90 91 89 88 87 87 85 83 80 84 81 89 92 89 83 83 80 80 71 73 67 71 77 78 80 81
71 68 72 75 81 87 88 92 89 87 83 82 84 79 80 84 82 73 74 77 77 90 74 67 72 69 71 76 78 81 82 69 54
82 83 86 86 88 85 91 92 86 82 81 78 80 77 80 75 72 69 69 67 70 78 74 77 79 82 71 71 80 82 81 78 66
82 77 78 85 86 88 92 91 88 90 88 87 83 84 77 69 67 68 76 69 67 87 78 90 86 75 72 71 75 76 78 76 74
82 82 82 84 83 88 93 94 96 92 92 86 94 90 88 85 80 76 79 84 88 92 91 88 87 83 82 75 71 67 73 76 63
76 75 69 81 75 86 96 98 82 87 88 75 73 80 97 100 87 80 80 86 84 87 88 91 94 93 89 85 82 74 72 75 63
59 52 68 72 71 82 77 61 50 45 40 40 43 49 60 66 94 90 83 84 80 90 84 93 98 99 97 96 88 78 80 76 62

GFSFLT1_850_rhum_096.txt.gz
RH
17 19 26 34 36 40 41 43 45 46 47 56 49 47 45 39 37 37 37 36 34 30 26 24 35 39 51 34 25 21 20 18 16
21 26 31 33 35 37 42 42 47 50 53 53 56 54 46 48 42 40 40 41 42 41 39 37 34 30 27 26 25 23 22 19 16
24 28 33 37 40 40 42 44 49 52 60 55 54 53 45 50 49 49 44 42 43 44 42 42 42 41 40 39 37 34 30 26 22
26 29 33 38 42 43 46 47 51 53 51 54 53 50 55 56 57 52 52 49 48 45 46 47 47 45 44 44 44 44 42 37 31
27 29 31 34 35 38 40 47 50 50 46 42 46 50 54 54 55 58 57 55 58 52 52 55 57 56 53 51 50 48 48 47 43
29 30 31 32 33 35 36 37 41 44 45 43 39 42 54 54 51 58 60 58 60 63 61 61 63 64 64 65 65 63 61 58 54
30 30 30 32 32 32 33 33 35 38 41 42 44 46 50 49 47 54 58 60 63 66 69 69 67 69 70 73 74 73 72 70 66
42 41 42 42 43 42 41 40 39 37 45 47 48 46 46 47 52 56 60 65 69 72 76 75 76 76 77 76 78 80 80 79 75
50 48 48 46 43 39 43 46 50 52 54 56 56 58 60 61 62 64 67 74 78 81 85 86 82 72 67 67 74 78 82 87 84
54 50 41 39 39 44 49 52 55 60 64 67 68 68 68 68 68 72 78 84 88 88 90 89 80 77 82 85 81 75 79 80 88
60 50 50 52 51 52 54 53 58 69 72 74 74 73 76 81 85 88 90 91 93 92 91 81 83 84 82 79 82 79 75 73 78
63 58 57 59 61 63 60 60 68 75 78 79 79 81 86 84 88 84 88 92 89 82 76 70 75 85 77 78 84 76 77 73 74
72 68 65 64 65 73 71 75 79 83 85 88 88 85 85 86 85 86 82 75 86 82 78 76 75 75 73 81 83 69 72 73 72
87 81 73 73 71 82 85 88 92 92 87 88 87 82 80 80 79 80 85 80 78 80 81 87 78 74 74 73 68 71 71 75 74
84 84 83 78 73 84 89 85 86 89 84 84 79 77 79 80 74 73 73 74 73 76 75 85 75 74 81 83 71 70 74 79 75
82 82 78 81 82 88 90 86 91 88 85 82 79 78 75 75 70 61 61 67 68 69 78 82 86 80 78 72 66 65 68 68 69
81 83 83 85 81 86 86 91 87 84 85 83 84 86 72 60 67 72 71 76 73 67 83 73 78 88 78 72 74 70 69 67 68
84 87 86 86 85 88 84 84 89 84 79 83 90 89 83 83 80 82 80 76 79 79 85 93 87 89 82 87 82 78 73 68 69
87 85 81 84 64 64 76 72 86 94 92 79 83 80 94 100 90 89 87 82 77 77 79 85 84 91 91 93 91 88 82 73 69
80 85 99 83 68 64 71 64 72 62 44 40 41 43 48 63 94 92 76 88 85 88 82 79 85 90 90 94 97 96 87 70 70

GFSFLT1_850_rhum_099.txt.gz
RH
17 19 30 36 37 38 45 50 59 51 53 44 46 42 39 40 39 39 38 38 37 34 31 30 30 28 27 27 27 25 22 19 16
20 28 36 40 42 42 46 50 54 54 55 52 47 46 46 45 41 40 39 40 40 40 40 41 40 38 37 37 36 34 31 26 21
26 33 39 43 46 49 49 55 60 60 55 54 49 47 50 52 51 48 42 42 42 44 44 44 44 42 42 42 42 41 40 36 29
30 34 39 42 43 48 50 53 57 58 60 54 52 54 56 57 56 53 50 48 48 48 50 52 52 51 50 48 48 47 47 45 41
31 32 36 40 45 48 50 53 53 52 53 53 50 50 57 54 55 56 58 58 55 54 54 57 60 61 61 60 59 59 60 57 52
29 31 33 35 38 38 43 46 48 46 42 42 42 44 52 49 49 54 57 58 58 60 61 62 64 66 67 68 68 67 68 67 64
31 32 32 33 35 36 37 38 40 40 39 40 42 46 52 50 50 54 58 59 63 66 70 69 69 73 73 74 74 72 74 75 71
31 31 31 32 34 36 37 37 37 38 42 48 48 45 48 51 53 56 59 64 72 76 78 80 79 75 72 67 67 72 75 81 80
37 40 43 44 46 46 45 43 44 45 53 54 55 58 61 62 63 64 66 74 81 84 85 85 78 78 84 82 73 66 76 80 84
51 49 48 45 44 43 47 52 53 58 61 65 66 66 67 68 72 75 78 84 88 92 89 85 75 86 79 84 82 76 68 69 70
52 53 50 46 47 53 58 58 60 66 70 72 72 71 73 81 85 86 88 92 93 89 82 76 72 85 80 81 78 80 73 74 66
60 57 49 54 58 59 60 60 62 70 76 76 78 81 85 85 84 86 86 87 79 79 77 74 73 82 77 78 80 78 69 68 66
59 58 60 60 59 62 69 68 69 77 81 87 87 86 82 85 82 82 78 77 81 74 79 76 74 74 74 86 81 74 68 62 68
66 68 66 67 67 67 77 78 85 92 87 88 84 80 79 81 78 81 76 78 80 78 74 76 84 78 78 81 82 73 62 60 67
85 86 86 77 72 71 83 88 88 84 84 80 79 80 77 79 80 78 74 57 63 71 73 74 87 79 83 88 77 66 63 64 63
85 84 93 89 75 72 84 88 85 85 83 81 82 78 73 78 56 57 55 52 67 70 70 72 84 83 81 75 77 71 71 70 67
90 86 83 79 79 86 82 84 84 84 80 80 81 86 79 64 53 64 72 69 70 73 68 81 82 79 88 81 77 81 78 73 70
76 93 87 84 84 85 90 85 88 86 84 85 86 85 84 84 84 81 79 82 79 68 65 77 84 80 81 86 82 85 86 83 79
76 84 93 90 90 93 90 83 82 83 97 95 95 80 98 95 91 86 79 83 80 78 76 78 80 79 76 84 83 84 87 90 79
88 93 99 98 100 98 85 90 86 74 55 61 43 41 47 51 85 93 80 81 82 83 83 89 87 86 86 85 90 96 95 83 78

GFSFLT1_850_rhum_102.txt.gz
RH
18 26 72 94 79 54 68 79 52 49 46 45 43 40 40 43 50 44 40 42 35 34 34 34 34 33 33 33 32 30 28 23 19
20 32 41 52 45 57 64 64 58 53 54 52 49 48 46 53 44 47 61 41 41 40 40 40 40 40 41 40 40 39 36 31 25
27 33 37 38 42 50 53 56 55 55 52 51 48 50 50 65 54 49 46 42 44 46 48 48 47 46 46 46 46 46 45 42 36
32 36 38 40 40 42 48 52 53 55 54 50 48 53 53 85 57 75 83 50 49 52 55 56 55 55 56 56 56 56 55 53 49
34 37 38 40 41 41 45 47 53 52 53 49 48 49 50 74 55 60 61 55 58 57 57 59 62 64 64 66 66 65 63 61 59
42 40 40 42 46 45 46 49 50 54 52 48 43 46 66 63 60 80 56 57 60 63 65 65 68 70 71 72 71 70 68 67 66
88 41 43 43 43 43 43 48 46 49 50 42 45 60 52 54 52 67 57 60 65 70 74 74 76 74 71 66 63 62 66 72 72
42 38 38 38 39 40 41 41 44 41 45 48 58 49 47 68 55 56 58 64 72 75 77 80 79 75 79 78 73 69 74 76 79
42 42 38 38 38 49 44 62 47 41 46 64 81 55 58 71 62 70 64 72 80 84 83 82 75 77 81 78 74 76 68 70 71
33 34 37 44 47 48 48 52 55 61 73 68 75 87 84 81 81 81 76 80 87 91 85 78 76 80 83 73 80 75 70 66 62
43 45 46 46 45 41 45 75 71 76 68 84 76 83 84 85 86 88 88 83 85 86 80 77 74 80 78 80 74 76 62 67 61
52 54 51 45 44 44 50 54 53 61 71 81 88 88 89 90 88 87 87 78 77 81 67 76 79 81 76 80 77 80 70 67 58
59 66 62 70 59 57 57 60 57 73 88 88 89 90 90 85 86 77 86 93 90 91 87 75 74 76 79 83 88 81 71 61 56
68 70 86 67 72 63 70 74 80 87 93 90 85 86 86 80 89 86 90 90 73 78 85 73 73 81 86 78 84 78 70 61 63
69 74 85 89 80 75 74 82 81 94 90 92 85 88 91 92 89 83 75 66 51 56 67 75 76 88 82 80 86 84 69 67 69
84 86 92 92 85 75 72 84 98 88 82 86 84 85 90 80 58 62 52 51 60 69 72 87 75 81 92 87 92 83 71 75 74
88 87 85 88 95 85 88 95 87 84 92 82 84 75 70 79 55 54 61 68 68 63 65 75 86 93 87 83 87 82 83 80 80
78 80 82 90 97 93 83 85 84 96 86 83 84 80 66 79 85 75 74 74 73 74 69 61 83 91 88 81 85 88 86 82 86
75 84 85 80 90 99 96 89 91 91 88 89 89 94 97 88 68 94 70 68 77 80 76 74 77 90 91 91 89 85 82 87 90
66 74 83 82 86 99 99 100 100 88 90 88 67 46 37 48 87 71 76 83 70 68 72 76 82 89 93 91 84 91 90 93 90

GFSFLT1_850_rhum_108.txt.gz
RH
39 83 89 93 41 33 30 30 30 30 32 34 37 55 70 59 53 56 46 34 36 37 37 38 39 39 39 40 40 40 38 34 26
37 87 91 67 52 49 36 34 34 34 34 36 41 57 71 74 77 41 39 39 40 42 43 43 44 44 45 46 47 46 46 44 38
78 94 93 98 99 67 43 40 41 39 41 41 44 56 79 81 74 47 43 44 45 47 48 48 50 52 54 56 56 54 51 51 49
100 100 95 98 94 75 54 49 47 44 41 43 46 60 82 85 87 74 48 46 47 49 50 53 56 60 62 65 64 61 58 56 57
99 98 96 99 89 83 55 52 47 45 43 44 47 54 78 73 79 76 52 51 52 54 56 59 64 67 68 65 61 60 60 64 64
94 95 99 100 91 90 62 53 48 44 44 42 44 57 75 76 86 81 55 52 55 59 63 65 69 68 68 69 67 67 66 68 71
95 94 98 100 98 96 55 56 50 46 44 42 41 63 66 72 72 74 58 53 60 65 67 68 70 65 74 72 69 66 62 72 72
91 70 68 70 52 47 50 50 49 49 61 61 54 71 73 72 70 60 55 56 63 71 73 73 74 70 79 72 69 72 65 61 58
69 52 43 45 49 51 50 48 47 44 65 69 74 75 62 69 74 74 68 63 70 76 80 75 71 76 80 77 76 75 70 64 59
66 52 49 47 46 49 59 62 71 68 53 77 80 80 80 77 76 78 83 83 79 83 86 78 73 74 76 80 77 73 71 65 62
78 61 51 54 61 75 74 69 77 73 78 82 82 80 79 78 78 80 84 88 83 70 76 74 70 72 74 82 79 77 73 70 61
83 78 62 64 74 70 70 69 81 83 82 80 81 80 80 78 78 85 83 81 80 86 89 86 82 81 73 76 79 80 79 69 62
58 58 66 67 67 59 55 66 84 82 80 81 81 79 82 74 74 80 75 80 86 87 86 82 85 73 68 75 80 85 79 74 66
56 57 56 57 60 63 75 78 79 77 75 82 77 77 79 80 78 72 77 78 81 73 66 65 72 67 70 78 87 87 82 81 72
58 60 66 85 93 87 76 82 82 80 77 76 77 77 79 70 74 80 81 81 70 50 54 69 72 74 74 84 88 75 83 90 74
73 78 90 92 88 85 87 86 85 82 81 84 72 74 74 76 82 79 73 72 62 50 50 80 97 64 69 90 93 97 93 84 73
78 77 85 90 92 93 94 90 86 86 82 87 82 81 78 81 75 67 56 64 61 54 56 58 53 44 72 98 99 100 96 83 83
73 84 90 88 86 88 88 90 90 88 91 86 80 77 67 70 71 68 59 62 53 47 56 66 70 66 78 96 99 100 92 89 87
84 85 84 84 80 79 81 79 86 87 94 96 91 87 77 75 76 80 82 70 67 69 58 63 70 72 77 90 98 98 96 94 83
84 84 81 80 77 69 68 68 60 71 83 94 91 91 76 69 49 68 68 66 81 78 80 67 64 67 69 72 86 98 100 94 86

GFSFLT1_850_rhum_111.txt.gz
RH
66 79 61 58 31 29 30 29 29 29 29 38 46 52 66 80 72 47 35 35 36 37 38 39 40 42 43 44 45 44 43 38 30
72 72 77 42 32 33 32 32 33 34 36 42 52 52 47 46 46 38 38 38 40 42 43 45 47 48 51 53 53 50 47 47 43
76 87 78 38 41 46 40 39 38 38 39 45 52 61 58 53 46 41 42 43 45 47 49 50 53 56 60 61 58 54 50 51 52
84 90 77 64 96 60 42 45 43 42 42 46 56 63 69 58 62 53 46 45 48 50 52 54 58 60 61 60 54 51 52 55 57
90 98 87 98 77 50 47 47 47 43 44 46 56 68 69 61 62 61 51 51 52 54 57 60 62 59 61 59 58 61 57 62 63
99 98 98 98 82 53 50 47 44 46 44 42 50 63 65 76 72 73 63 54 54 60 63 65 66 59 67 68 63 62 63 66 68
95 98 97 98 83 59 50 49 46 45 43 41 42 62 69 70 70 76 67 56 60 65 68 71 71 66 74 71 70 70 63 60 57
100 99 100 97 84 58 45 49 50 48 49 49 53 69 70 72 72 66 60 56 61 69 72 72 71 75 79 76 76 72 66 62 58
91 88 91 76 44 45 49 49 51 50 52 55 70 74 66 72 72 71 72 68 66 73 79 76 71 74 79 82 80 75 70 68 61
80 61 46 40 45 47 46 44 45 51 46 57 77 80 78 76 76 78 80 85 81 76 78 82 70 70 75 84 82 76 71 68 62
61 60 45 47 48 46 47 52 56 58 60 74 81 80 81 78 78 78 80 82 74 77 83 82 76 73 74 73 81 79 81 73 63
65 60 49 46 47 59 60 71 71 72 80 81 83 80 78 78 74 76 71 76 77 84 87 87 76 76 78 76 75 79 78 73 67
68 63 51 47 54 64 69 70 71 82 83 82 80 80 78 75 73 74 77 76 79 80 86 84 69 73 73 72 77 80 81 78 74
78 74 64 59 54 61 61 61 74 81 81 74 78 78 72 73 72 78 77 74 78 82 80 55 48 60 63 68 79 83 84 82 82
72 66 59 59 63 61 56 57 72 71 72 76 81 79 73 76 75 70 76 79 82 82 53 46 53 65 70 74 86 91 88 92 91
59 57 63 70 68 66 69 68 77 82 81 79 80 77 77 74 72 72 75 75 70 55 48 52 51 54 67 99 100 98 97 95 91
76 72 77 89 88 91 88 88 87 84 80 82 77 77 74 74 73 78 77 55 51 56 51 54 58 56 71 97 96 94 89 94 90
92 78 83 92 93 78 86 88 86 87 86 85 88 87 77 78 84 84 71 55 63 58 60 56 60 53 54 56 96 92 85 87 90
89 89 95 93 92 94 91 86 83 82 81 87 82 88 92 79 81 77 74 78 76 59 56 55 53 59 64 64 75 93 96 90 90
94 88 90 87 86 85 80 78 73 69 71 69 63 80 91 89 77 77 78 86 83 77 66 59 61 60 58 61 66 74 89 94 94

GFSFLT1_850_rhum_114.txt.gz
RH
86 78 90 37 31 31 32 36 53 68 69 68 63 66 65 61 54 37 35 36 38 39 40 41 43 46 48 48 47 43 42 40 35
78 70 64 36 30 30 29 31 33 43 51 54 53 49 49 47 39 37 38 39 41 42 44 46 49 52 54 54 51 49 46 46 45
76 61 64 30 28 28 29 31 34 37 46 50 46 48 50 44 38 41 42 42 45 46 48 51 54 57 58 56 53 50 49 52 52
80 64 73 34 33 31 32 35 38 40 45 53 57 55 57 58 51 45 45 45 46 50 54 57 59 57 59 56 57 54 57 59 57
84 82 70 49 46 35 37 39 41 43 46 55 65 61 57 64 68 55 51 50 51 54 57 61 60 56 65 63 62 62 63 63 63
89 98 80 90 75 43 41 42 42 44 47 51 65 74 58 62 65 69 56 53 55 59 61 63 63 61 69 68 67 66 62 59 55
86 96 95 98 75 53 49 47 45 44 43 48 60 71 69 61 61 65 60 51 55 62 65 67 68 67 73 72 70 68 64 60 57
98 92 97 99 88 60 54 49 46 45 43 40 48 66 63 61 66 67 60 54 55 62 69 72 70 75 79 74 74 70 68 65 60
98 96 99 96 81 60 49 49 48 46 46 48 52 63 66 61 66 70 69 73 69 70 74 74 73 70 78 78 80 74 69 68 64
96 96 99 88 71 52 47 49 49 47 46 53 60 68 73 67 69 75 78 79 76 75 71 77 71 66 73 73 79 83 72 70 66
69 74 78 59 49 51 48 47 44 45 52 49 66 70 80 80 79 78 80 80 78 74 85 82 74 69 74 75 75 76 76 77 68
50 50 49 39 45 51 50 49 55 58 57 65 78 77 79 80 77 72 74 72 78 78 84 76 85 83 76 75 73 75 79 81 74
63 59 54 46 50 49 54 54 58 62 74 77 77 82 80 78 79 72 71 73 74 78 81 85 84 65 64 73 72 81 84 87 80
67 62 63 55 52 52 55 59 67 68 74 78 80 81 80 76 73 74 71 76 74 76 80 83 73 44 56 64 76 86 89 90 84
83 79 63 60 62 62 63 69 64 62 73 81 78 79 80 77 75 74 72 67 74 77 82 81 44 49 64 72 86 87 95 95 92
92 81 74 68 54 56 68 64 61 71 78 77 76 82 81 77 78 74 74 72 76 80 79 51 41 44 48 71 97 99 97 95 92
88 81 76 66 63 71 63 61 67 78 80 81 79 82 84 82 80 75 71 76 79 55 52 41 41 48 53 83 97 98 87 85 80
81 69 64 59 76 71 74 74 75 79 83 85 80 85 79 78 78 77 75 79 78 54 50 51 48 44 44 49 56 66 92 87 86
66 64 74 77 82 80 70 85 82 80 76 78 82 79 79 77 81 83 86 84 74 66 63 65 61 57 51 54 64 70 87 90 87
86 88 91 87 100 91 89 75 75 79 83 79 71 73 78 86 79 89 88 90 81 76 76 79 69 65 67 65 61 64 78 90 94

GFSFLT1_850_rhum_117.txt.gz
RH
58 95 93 73 68 30 30 36 49 63 64 67 70 67 62 52 38 36 36 37 38 40 43 46 49 50 52 50 48 44 43 42 38
81 67 87 32 33 33 34 37 49 56 58 61 64 64 51 46 38 38 38 39 43 45 47 50 53 52 53 52 50 47 46 47 46
82 66 52 36 32 32 33 37 41 45 47 52 53 52 50 40 40 41 43 43 45 48 51 54 53 54 56 52 51 50 50 50 50
77 65 58 32 31 30 30 31 31 37 47 51 52 54 54 50 44 43 44 46 48 50 54 57 54 59 60 61 61 61 60 60 61
69 70 59 31 30 30 32 35 37 40 48 50 52 60 59 61 54 48 47 48 52 54 57 59 58 62 66 64 64 63 62 60 56
71 76 68 37 35 34 35 38 39 42 48 52 54 55 53 56 60 59 52 51 55 59 62 63 62 64 69 67 66 64 60 58 56
75 90 78 44 48 41 42 41 42 43 46 49 52 54 54 56 56 56 54 52 54 61 65 67 67 67 74 70 70 67 64 62 60
79 94 92 67 83 52 47 46 44 43 43 44 50 56 55 56 58 56 57 55 56 61 69 70 70 73 79 77 76 71 69 67 64
80 93 84 83 74 56 50 48 45 42 43 42 45 52 59 59 62 66 67 72 72 71 71 74 75 74 76 76 83 80 73 68 66
75 80 82 82 84 59 50 50 49 48 45 45 44 54 64 59 63 71 77 76 73 70 70 67 75 66 69 75 76 74 84 75 70
86 78 88 78 82 67 58 52 51 51 48 50 53 59 72 74 75 75 77 77 76 80 74 77 73 74 72 71 72 78 75 82 77
91 82 79 76 74 73 72 57 56 51 47 48 50 66 74 78 79 76 75 76 75 77 78 80 78 85 82 74 71 77 79 85 82
98 85 64 53 78 65 64 59 53 48 55 56 54 69 74 79 78 78 75 73 73 76 76 79 83 85 73 56 64 81 83 84 84
100 79 71 55 64 59 64 56 52 55 60 62 70 76 78 76 77 78 74 72 74 76 76 77 80 83 44 46 59 87 86 84 88
93 90 62 61 66 64 63 53 61 61 61 68 78 81 78 80 80 77 77 73 72 72 75 79 82 62 38 51 78 87 87 90 94
90 96 69 72 81 57 56 55 64 68 73 85 84 84 82 81 80 80 77 75 71 71 76 79 49 41 37 41 76 98 98 94 92
89 70 61 84 73 62 60 63 61 70 78 82 88 82 80 83 81 79 80 76 74 69 80 53 40 39 39 40 55 92 96 93 88
86 79 89 89 72 64 61 65 70 77 72 86 83 83 81 80 82 83 83 80 74 76 80 48 47 48 51 54 60 62 63 79 88
92 90 86 85 81 73 65 71 78 79 78 86 87 82 79 78 82 83 84 85 87 87 76 49 58 57 53 56 57 60 59 67 81
87 75 81 88 81 78 70 82 80 85 82 80 82 82 84 81 80 76 80 90 91 87 76 63 67 70 70 62 66 65 62 68 75

GFSFLT1_850_rhum_120.txt.gz
RH
56 70 98 97 96 61 31 32 34 42 53 59 63 69 62 49 38 37 37 39 41 43 45 48 50 50 50 47 44 41 42 42 40
59 50 74 91 40 27 30 33 44 48 46 51 59 61 50 44 37 38 40 41 44 48 50 50 50 53 52 46 45 45 47 47 46
79 62 40 33 36 30 33 39 44 44 42 41 44 46 43 39 40 42 44 44 47 50 54 52 50 57 54 56 55 56 55 55 55
88 75 45 32 36 35 35 43 42 38 39 41 42 47 44 40 41 43 45 46 50 54 55 56 52 60 61 61 62 60 60 59 57
87 78 54 34 34 34 32 35 36 36 40 42 48 50 51 48 44 43 46 48 51 56 58 59 58 62 65 65 65 62 59 56 55
93 78 64 39 30 30 32 32 34 39 41 43 47 51 50 50 52 49 46 48 53 58 62 62 61 66 70 69 68 65 62 61 59
94 82 70 51 29 32 34 38 39 39 40 42 46 49 51 55 56 58 55 52 54 60 64 68 67 68 76 73 72 70 68 66 64
95 92 84 70 37 37 41 43 42 41 42 42 44 47 52 54 54 58 56 55 56 61 67 72 72 74 71 76 76 76 73 70 67
86 94 84 82 49 46 42 46 46 43 42 44 45 48 50 52 55 61 62 65 69 70 71 73 77 82 66 80 77 80 82 75 70
85 91 86 77 76 63 51 48 50 48 44 41 42 44 50 56 57 63 71 74 71 74 67 64 67 70 67 67 72 76 76 81 74
85 86 87 78 78 65 69 54 49 48 49 46 43 42 51 63 60 64 72 77 77 80 77 75 70 74 74 71 65 75 74 71 74
82 90 87 74 72 74 80 74 61 55 53 51 52 53 56 63 69 71 75 78 78 80 77 71 73 77 80 84 58 67 76 72 74
91 86 92 83 79 71 89 86 69 58 54 54 49 50 58 68 72 75 77 78 78 76 78 78 76 78 84 83 52 69 80 81 79
87 97 99 94 89 91 70 90 86 65 54 50 51 53 53 69 72 75 77 77 77 76 77 76 76 77 81 66 46 68 78 88 82
77 100 100 99 100 94 89 77 89 74 52 60 63 61 67 72 78 80 78 78 76 73 73 71 76 80 66 40 52 83 86 93 91
78 99 99 100 86 74 89 88 80 78 58 74 72 73 78 80 77 80 79 79 80 75 72 73 76 60 44 38 49 78 89 94 86
70 78 100 99 76 82 87 85 84 74 72 80 87 89 82 79 77 79 83 81 80 81 76 76 77 53 38 42 55 82 78 80 89
90 77 85 99 66 48 68 81 79 70 72 84 88 90 84 72 72 75 82 81 81 83 81 80 76 62 45 42 47 61 78 78 64
93 91 84 96 69 72 74 79 68 75 78 88 92 87 80 80 74 72 77 77 82 85 85 84 80 59 54 50 50 49 67 62 66
92 99 99 97 77 61 51 66 73 77 84 85 89 89 91 86 81 77 75 80 80 86 86 89 78 60 66 64 64 70 63 66 63

GFSFLT1_850_rhum_123.txt.gz
RH
54 46 75 88 98 88 60 31 30 37 43 51 55 53 47 39 37 36 38 39 42 44 46 47 47 49 46 42 42 42 41 42 42
71 54 82 71 84 46 67 36 37 50 55 48 49 46 41 36 35 37 39 40 44 46 48 45 49 52 50 48 50 50 49 50 50
72 63 41 51 29 26 39 42 48 46 49 48 46 40 37 35 36 39 41 42 46 49 50 48 51 58 58 59 59 58 58 59 61
86 76 46 31 30 29 31 42 50 45 43 43 41 40 36 37 39 40 43 45 49 52 54 52 55 62 62 62 61 60 58 55 54
92 88 64 38 36 32 35 39 45 44 42 42 44 44 43 40 42 43 45 49 54 56 57 57 58 63 66 65 63 61 59 58 56
84 92 78 51 38 37 36 40 40 38 43 44 46 50 49 49 48 46 47 49 56 60 61 61 62 64 71 69 67 65 63 62 61
82 85 82 68 43 38 36 36 37 36 40 45 46 49 50 50 53 55 54 51 53 59 62 64 66 65 71 73 72 72 69 66 63
88 93 90 74 61 35 35 35 36 37 39 42 48 49 49 53 54 52 54 52 51 56 63 68 70 72 66 73 73 78 77 73 67
83 92 91 86 64 43 36 38 39 42 43 43 44 46 46 48 50 56 58 59 64 66 70 72 77 81 71 65 72 79 77 77 75
78 86 93 85 79 63 40 42 44 46 46 46 43 44 49 48 52 55 61 66 70 69 71 63 76 76 64 67 67 66 76 79 69
86 82 87 88 85 76 57 50 50 53 50 50 47 43 44 50 56 59 62 68 75 75 77 74 71 63 71 72 74 59 80 74 70
85 93 88 83 85 85 75 72 72 65 62 55 51 48 42 44 56 65 63 71 77 76 78 75 63 66 71 74 79 56 58 71 76
75 91 94 88 90 86 77 78 77 76 65 57 54 55 56 53 56 70 73 75 78 80 78 79 78 76 76 79 83 54 58 74 82
76 77 74 99 98 99 88 88 86 83 68 64 61 59 56 58 59 68 74 74 77 78 77 76 78 75 78 82 82 50 75 75 88
69 80 79 74 90 100 96 98 88 89 88 78 71 65 56 59 57 68 75 76 76 78 79 76 75 73 78 78 51 42 80 83 92
71 75 84 80 74 81 99 99 86 80 84 98 89 67 63 67 63 71 78 78 77 81 79 75 76 74 77 56 41 42 74 94 96
79 78 85 89 85 97 98 100 73 77 77 91 98 94 72 67 63 72 78 78 80 79 81 78 77 77 78 52 37 38 66 72 75
73 73 86 99 98 99 96 99 92 82 81 85 87 89 87 68 62 63 76 78 80 81 81 80 80 80 78 53 44 43 49 60 68
76 79 91 98 100 100 99 94 83 79 80 79 87 91 86 81 70 64 61 72 74 81 80 82 84 82 80 63 53 49 52 49 53
96 94 99 100 100 98 100 95 74 69 84 62 75 82 94 94 89 78 69 70 71 71 73 83 87 88 85 74 57 57 57 58 62

GFSFLT1_850_rhum_126.txt.gz
RH
49 67 84 86 85 80 40 40 41 52 50 46 50 46 41 37 36 44 39 83 42 44 44 44 48 46 42 40 42 42 42 42 42
58 54 74 87 90 87 47 35 38 42 50 57 55 43 37 35 35 40 53 46 44 46 46 46 52 51 49 52 52 52 52 52 51
85 66 73 90 89 69 65 38 44 55 54 52 54 46 39 35 38 41 74 43 46 49 49 46 53 57 58 57 57 56 55 56 54
89 75 65 58 36 45 86 47 56 58 56 53 48 43 39 58 63 53 74 44 47 51 51 50 54 60 61 60 60 58 55 54 53
91 85 72 39 30 28 68 54 59 56 54 50 46 45 41 67 40 54 74 46 48 52 54 55 56 61 65 65 62 59 59 58 57
92 91 85 54 33 32 34 44 56 57 54 53 50 50 61 71 61 76 47 47 48 52 56 58 59 63 70 69 67 65 64 63 60
89 94 91 82 51 35 35 40 50 56 76 59 56 55 82 80 76 69 50 49 48 54 58 62 63 63 69 71 72 72 70 69 64
86 96 92 95 78 58 38 37 41 49 79 87 87 87 86 80 84 74 57 52 50 53 59 64 66 68 70 70 74 74 76 74 72
99 88 97 98 94 73 46 38 44 54 48 52 62 75 71 81 83 82 56 55 54 55 60 66 71 76 80 64 65 73 75 73 75
91 82 88 93 98 99 73 38 48 77 67 44 48 67 78 82 78 57 56 59 63 69 67 66 73 89 74 64 70 65 61 76 76
85 88 85 96 96 99 92 67 43 70 74 69 52 55 75 78 75 67 72 61 68 72 72 71 74 60 62 70 74 74 61 74 77
73 80 89 86 90 97 95 88 71 61 52 86 75 72 66 71 66 61 76 75 66 73 75 74 64 72 64 72 74 76 74 54 68
93 72 70 81 99 98 99 93 88 74 85 68 81 84 78 70 74 74 72 68 68 71 73 75 75 76 74 73 75 78 76 52 66
65 90 90 68 74 93 100 100 92 89 81 80 89 86 88 84 80 77 78 67 72 75 79 76 75 77 79 78 79 82 74 64 74
58 62 73 99 97 78 76 97 100 97 90 81 81 92 92 93 78 71 77 80 72 75 78 78 76 75 77 79 80 81 53 64 80
56 63 87 93 98 89 92 80 96 88 99 88 85 91 94 94 86 64 66 74 71 74 77 78 79 78 74 75 78 66 44 67 87
61 68 69 89 94 95 93 95 100 99 99 97 99 97 92 91 66 57 59 64 85 68 76 77 77 78 76 74 74 59 40 74 82
56 67 79 95 94 91 84 98 100 100 100 98 89 91 79 71 74 64 55 56 68 68 72 75 73 78 79 76 74 67 41 47 53
65 64 70 86 86 86 90 94 99 99 100 99 89 80 83 82 80 68 59 56 82 66 70 74 78 78 79 78 78 73 54 48 46
70 76 96 97 93 91 90 98 98 100 100 98 85 80 95 91 90 89 84 71 67 70 74 74 75 81 79 80 82 79 71 55 51

GFSFLT1_850_rhum_129.txt.gz
RH
67 78 84 88 87 83 79 54 70 78 71 64 65 55 50 50 74 70 59 78 39 40 41 46 48 43 41 42 41 41 41 41 42
54 57 70 79 82 81 64 49 47 61 55 53 57 53 44 71 76 78 89 39 41 42 41 44 50 51 53 53 53 52 52 52 52
72 63 59 67 77 81 59 39 39 47 54 60 61 52 48 57 73 83 93 42 41 44 45 46 55 57 58 57 56 55 52 51 50
89 83 71 63 58 55 65 38 40 51 68 76 60 56 44 62 70 80 93 44 42 46 47 49 54 59 60 59 58 56 55 54 53
88 91 82 69 54 38 36 35 42 52 58 72 61 51 46 51 75 71 84 60 45 48 51 53 56 61 64 64 62 59 58 58 56
89 90 88 83 50 36 30 32 43 50 48 48 46 48 52 67 74 77 69 46 47 51 54 56 58 61 67 69 67 65 64 64 61
88 99 90 88 75 44 40 40 46 51 51 45 46 45 62 78 76 77 70 47 46 49 55 59 62 63 66 70 70 71 71 71 68
91 88 99 94 92 80 50 40 45 53 54 82 74 49 65 79 79 82 76 59 54 50 53 60 62 66 70 67 72 71 74 75 74
92 93 89 98 97 97 98 52 37 41 61 79 80 80 83 82 79 79 80 60 56 54 53 57 62 69 74 75 63 63 68 73 75
85 87 97 97 99 98 98 94 76 62 65 78 79 78 78 80 78 78 74 57 54 55 60 64 63 68 84 78 62 70 72 58 75
94 89 84 86 93 96 98 95 86 79 52 64 75 75 74 74 75 76 75 65 55 56 60 61 70 80 80 61 67 72 68 67 60
93 81 80 81 84 85 92 93 100 89 74 73 75 77 74 71 70 74 75 78 67 57 62 62 64 63 72 60 66 74 71 76 65
92 92 73 79 92 86 86 88 98 97 86 76 76 79 77 75 72 71 71 75 83 79 62 64 67 69 65 61 70 71 74 72 72
55 64 85 92 80 98 89 88 92 98 96 96 90 90 78 73 77 77 74 74 78 85 79 65 68 70 73 76 76 74 76 70 69
58 64 61 66 96 92 98 96 89 98 99 98 98 99 85 80 77 83 80 77 76 75 68 82 68 69 68 72 74 76 76 79 64
85 80 75 86 92 90 98 98 98 94 96 100 99 99 90 88 86 56 66 72 79 78 83 68 72 73 71 71 71 73 74 78 52
45 52 73 85 94 95 98 98 98 100 97 100 99 100 100 95 80 91 88 61 56 56 56 67 60 70 75 72 70 72 73 75 49
34 39 55 75 88 99 92 88 90 93 95 99 99 100 95 87 83 76 78 61 61 49 48 66 73 70 72 75 73 74 74 72 51
40 48 64 69 84 85 85 86 87 88 94 98 97 95 96 84 76 80 84 64 58 58 46 59 57 64 75 72 72 73 76 75 70
63 72 75 96 96 89 93 92 96 92 92 93 96 98 100 98 90 88 84 81 78 59 82 94 78 79 79 77 78 66 68 82 81

GFSFLT1_850_rhum_132.txt.gz
RH
49 73 85 89 85 81 75 68 76 87 78 82 68 60 54 72 78 79 83 56 41 40 40 47 45 42 43 43 43 43 43 43 44
70 82 72 82 84 81 67 50 47 48 63 77 54 56 50 72 78 73 84 58 42 42 42 47 52 52 53 54 53 53 52 51 51
75 67 68 71 70 75 61 40 42 43 44 49 69 56 49 62 74 84 83 66 44 45 44 47 55 57 58 57 55 54 51 51 50
86 78 75 67 70 66 64 47 37 39 45 57 66 52 48 58 72 74 81 62 44 46 48 50 54 59 61 60 57 55 56 55 54
85 88 85 77 66 56 54 52 36 44 55 72 66 52 42 51 71 70 82 77 49 44 48 51 54 60 65 65 62 60 59 60 57
78 85 87 83 76 45 48 51 48 51 53 51 50 44 44 44 68 63 66 63 48 46 49 52 54 56 62 68 68 66 65 66 64
72 82 89 89 89 72 47 40 41 46 53 50 43 40 44 59 74 75 72 58 44 44 48 54 57 58 60 65 65 69 71 73 71
87 86 86 99 90 90 67 41 36 38 47 52 48 53 44 60 80 78 78 67 53 47 42 44 50 55 61 66 67 70 65 73 72
96 94 92 96 99 90 90 76 42 36 38 50 72 78 67 57 81 79 77 76 63 51 46 43 46 52 60 70 73 60 61 61 68
88 85 86 89 91 87 88 93 91 62 38 39 52 79 81 81 72 79 78 75 62 54 52 52 50 54 58 75 81 60 67 76 67
84 81 83 86 88 89 92 95 92 89 72 53 44 65 74 78 77 77 76 72 65 57 54 56 60 63 75 79 78 57 66 74 64
89 85 78 76 78 84 89 93 95 93 80 81 56 48 53 65 74 73 75 75 69 57 54 53 59 61 64 61 72 53 70 76 73
82 86 77 72 68 75 82 88 91 91 92 94 82 71 63 60 65 71 71 73 73 68 60 54 54 55 63 63 62 54 69 74 77
73 80 91 90 86 82 68 75 88 92 99 100 99 89 80 75 79 76 72 71 71 69 71 65 61 62 65 67 66 65 69 72 75
72 73 65 68 85 90 81 77 82 94 91 99 99 100 97 93 87 73 74 76 69 68 69 70 64 64 67 70 68 70 70 70 74
76 72 61 55 64 59 64 84 85 89 91 95 95 85 99 92 99 81 83 81 80 79 78 59 54 51 51 60 71 71 70 72 75
68 59 48 56 76 83 80 96 87 98 87 84 96 97 96 84 90 94 90 84 79 75 56 55 45 42 42 47 69 76 73 74 72
52 47 40 41 60 75 84 83 87 88 85 88 90 92 94 89 87 80 74 77 86 82 65 64 56 50 41 40 42 47 53 68 74
68 73 58 54 52 71 76 86 89 89 91 94 96 92 93 92 88 84 75 74 81 83 80 68 60 52 46 42 48 57 67 76 77
52 44 49 53 57 74 90 91 94 92 92 97 100 99 97 90 100 98 85 79 71 82 75 65 54 52 54 48 71 74 80 80 76